GFSWCAN_850_temp_000.txt.gz
Temp
1 1 1 1 1 1 1 1 1 1 1 2 2 1 1 1 1 1 1 1 1 1 2 3 5 6 5 6 9 9 9 10 11 13 17 21 22 24 24 25 22 22 23 24 24 22 23 20 24 22 22 23 24 25
1 1 1 1 1 1 1 1 1 1 1 1 1 1 1 1 1 1 1 1 1 1 2 3 4 4 4 6 6 7 8 8 10 11 15 16 19 22 23 23 24 24 25 24 23 24 19 19 18 20 22 23 24 24
1 1 1 1 1 1 1 2 1 2 1 1 1 1 1 1 1 1 1 1 1 1 3 5 6 6 5 5 5 7 8 8 9 9 11 12 13 19 19 22 24 23 24 23 21 20 19 18 18 19 21 22 22 22
1 1 1 1 1 1 1 1 1 1 1 1 1 1 1 1 1 1 1 1 1 2 4 8 7 7 6 7 6 6 7 7 7 8 9 11 13 17 18 18 20 19 20 21 20 17 19 17 16 17 18 19 20 20
1 1 1 1 1 1 1 1 1 2 2 1 1 1 1 1 1 1 1 1 1 1 5 6 6 7 8 7 6 6 6 6 6 8 8 11 15 15 17 16 12 11 14 20 20 16 14 13 14 15 17 18 18 18
1 1 1 1 1 1 1 2 1 1 1 1 1 1 1 1 1 1 3 2 1 1 3 7 7 8 8 7 7 7 6 6 7 10 9 8 13 14 13 11 11 10 12 13 17 14 11 11 13 15 15 15 16 17
1 1 1 1 1 1 1 1 1 1 1 1 1 1 1 1 2 2 2 2 2 1 1 4 10 10 8 8 8 8 7 8 9 12 10 8 12 13 11 10 11 11 12 13 13 13 11 11 10 12 14 15 15 16
2 1 1 1 1 1 1 1 1 1 1 1 2 2 2 2 2 2 2 2 1 1 2 4 8 10 10 12 12 10 10 9 12 14 8 9 11 12 10 10 11 10 9 9 10 12 13 11 10 11 13 15 14 14
2 2 1 1 2 1 1 1 1 1 1 2 2 3 3 2 3 3 2 3 2 1 2 5 8 10 12 13 12 12 12 13 12 13 11 12 10 9 8 9 9 10 10 9 8 9 9 10 10 10 11 14 15 14
2 2 1 1 1 1 1 1 1 2 2 2 2 3 4 4 4 3 3 3 3 2 3 7 9 10 10 13 14 15 14 12 10 12 11 10 9 8 8 8 9 9 9 9 9 8 8 9 10 10 13 12 13 14
1 2 2 2 1 1 1 2 2 3 2 2 2 3 3 4 4 5 6 6 5 6 8 8 9 10 10 11 13 15 16 14 10 12 11 10 8 8 8 8 9 10 10 9 9 9 11 10 12 12 12 12 13 13
1 2 2 2 2 2 2 2 2 2 1 2 2 2 3 5 6 7 8 8 6 9 10 10 10 9 9 8 13 15 16 16 14 14 13 8 8 7 8 8 8 9 9 9 10 10 11 12 12 11 11 11 12 12
2 2 3 2 2 2 3 3 3 3 4 2 3 3 5 6 5 6 7 9 8 9 10 11 11 10 10 12 15 16 16 14 15 13 12 9 8 8 8 9 10 10 10 10 11 11 12 12 12 12 11 11 12 12
3 3 3 3 3 4 4 4 4 4 3 3 3 4 3 4 5 6 7 8 9 9 10 10 12 9 14 15 15 14 15 15 14 12 10 9 9 9 9 10 11 11 11 11 12 12 12 12 12 12 12 11 12 12
4 4 4 4 4 5 4 5 5 4 3 2 1 3 4 4 6 8 8 10 10 9 10 12 12 12 14 14 15 15 14 11 9 9 9 10 10 10 10 11 11 11 12 11 12 12 12 12 13 12 12 12 11 11
4 5 4 4 5 6 6 6 5 4 4 4 5 6 7 9 10 10 9 10 10 9 10 12 13 13 12 12 11 11 10 8 8 8 8 9 10 10 10 11 11 11 11 12 12 12 12 12 12 12 12 12 12 11
5 3 4 5 6 7 6 6 4 5 7 7 8 8 8 9 9 9 9 9 9 12 12 13 11 10 13 10 7 7 6 5 8 8 9 9 10 10 11 11 11 11 12 11 12 12 12 12 12 13 12 12 12 12
4 5 5 5 6 7 6 5 6 8 8 8 9 8 7 8 8 8 8 8 9 10 11 11 11 10 9 8 8 8 7 8 8 8 9 9 9 10 10 11 11 11 11 11 11 12 12 12 13 13 12 12 13 13
5 5 5 5 5 5 5 6 6 8 8 8 7 8 8 8 8 8 8 8 8 9 11 11 11 10 9 8 8 9 9 9 9 10 10 9 9 10 10 11 11 10 10 10 11 12 12 11 11 12 13 13 13 13
5 5 5 6 6 4 6 6 5 7 7 6 7 7 8 8 8 9 9 9 11 11 11 10 10 9 10 9 9 9 9 9 9 10 10 9 10 10 9 10 10 10 11 11 11 11 11 11 11 11 11 11 12 12
6 5 6 6 5 4 5 5 7 5 5 7 7 7 8 8 9 9 8 10 10 10 10 9 9 9 7 8 8 8 8 8 8 8 9 8 9 10 10 10 10 10 10 10 10 10 10 9 9 10 10 10 10 10
5 5 5 5 4 4 5 4 4 5 6 7 7 8 8 8 8 8 7 8 8 6 6 7 8 8 8 9 8 8 9 9 9 9 9 9 10 10 9 9 10 9 9 9 9 9 9 8 8 8 9 8 9 9
5 5 3 5 5 5 5 4 5 4 6 7 7 8 7 7 6 6 6 6 6 6 7 8 8 8 9 9 9 9 9 9 9 9 9 9 9 8 8 8 8 9 9 8 8 8 8 7 7 7 7 8 8 8
6 4 4 4 4 6 6 7 6 7 7 7 5 5 6 6 6 7 8 8 8 8 8 8 9 9 10 10 10 9 9 10 10 10 9 9 9 8 8 8 8 8 7 7 7 7 7 7 6 7 7 7 7 7
5 6 5 4 5 7 9 10 9 10 10 9 8 9 9 7 9 10 10 9 9 9 9 9 9 9 10 10 9 9 8 9 9 10 9 9 9 9 9 8 7 7 6 6 6 6 6 6 6 6 6 6 5 5
5 7 6 9 9 9 10 11 11 10 10 11 11 10 10 11 12 10 9 8 8 9 9 9 9 9 8 8 8 8 7 7 7 8 7 7 7 8 8 8 7 7 5 5 5 5 5 5 5 5 5 5 4 4
10 11 8 7 6 7 10 9 9 10 12 12 12 12 13 12 11 9 8 7 8 7 7 8 8 8 7 7 7 6 6 6 6 6 5 5 5 4 4 4 4 2 3 2 3 3 3 3 3 3 3 3 3 3
9 9 11 11 9 9 11 12 12 13 13 11 11 12 11 11 8 7 7 7 8 8 7 7 7 7 6 6 5 5 5 5 6 6 6 6 5 4 2 3 2 1 1 1 0 0 -0 0 0 1 1 1 1 1
10 11 9 12 12 11 12 13 13 12 10 12 12 11 8 6 6 5 5 5 5 4 4 4 5 6 5 5 5 5 4 4 4 4 4 4 3 2 1 1 1 0 0 -0 -0 -1 -2 -2 -2 -2 -2 -1 -1 -1
13 11 12 13 13 13 11 12 11 10 9 7 6 4 4 3 3 4 4 4 4 4 5 5 4 4 4 4 4 3 4 2 1 1 2 1 1 0 -0 -1 -1 -1 -1 -2 -2 -2 -2 -3 -2 -2 -2 -2 -2 -3
12 13 14 13 13 12 10 10 9 8 7 5 5 4 4 4 4 5 5 5 4 5 5 5 4 3 3 3 2 2 2 1 -0 -1 -1 -1 -1 -2 -2 -2 -3 -3 -3 -3 -3 -3 -3 -3 -3 -3 -3 -3 -4 -4
13 13 13 14 13 11 10 10 10 7 6 6 5 5 5 6 6 4 3 5 5 5 4 3 3 2 1 1 0 -0 -2 -2 -3 -3 -4 -4 -4 -4 -4 -4 -4 -4 -4 -4 -3 -3 -4 -4 -4 -4 -4 -5 -4 -4
14 14 14 14 14 14 12 11 10 8 7 8 7 7 7 7 7 4 4 3 3 3 2 2 1 0 -1 -1 -2 -1 -2 -2 -4 -4 -5 -5 -5 -5 -5 -5 -5 -5 -4 -4 -4 -4 -4 -4 -4 -5 -5 -5 -5 -5

GFSWCAN_850_temp_003.txt.gz
Temp
2 1 1 1 1 1 1 1 1 1 2 2 2 2 2 2 2 1 2 1 1 2 2 4 5 6 7 9 8 6 12 10 12 11 14 17 19 22 22 24 24 23 24 25 25 25 25 26 26 26 24 25 26 26
1 1 1 1 1 1 2 2 2 2 2 2 2 2 2 2 2 1 1 2 1 1 3 4 5 6 7 8 9 10 9 8 11 11 11 11 13 17 22 22 26 25 26 25 26 26 23 23 23 23 24 25 25 26
1 1 1 1 1 1 2 2 2 2 2 2 2 1 1 2 1 1 1 2 1 2 3 6 7 8 8 7 7 8 10 10 10 9 10 9 11 13 18 21 25 24 27 27 26 22 22 22 22 23 23 23 24 25
1 1 1 1 1 1 2 2 2 2 2 2 2 1 1 1 1 1 1 2 2 2 5 8 10 9 9 9 8 8 8 9 8 9 10 9 11 11 14 13 17 14 21 24 22 21 20 19 19 19 20 21 22 21
2 2 1 1 1 1 2 2 2 2 2 1 1 1 1 1 1 1 1 2 2 2 5 7 8 9 9 9 9 8 8 8 8 9 7 9 11 10 13 14 11 10 12 19 23 21 20 18 18 19 19 18 19 19
2 2 1 1 1 1 1 1 2 2 2 2 2 1 2 2 2 2 2 2 2 2 4 8 9 10 10 10 9 9 9 9 9 5 6 9 11 12 11 11 12 11 13 16 17 17 15 15 15 14 16 17 18 19
2 2 1 1 1 1 1 1 2 1 2 2 2 2 2 2 2 2 2 3 3 2 2 4 7 10 11 10 10 10 9 9 8 5 9 10 10 9 11 10 12 12 15 15 15 14 14 13 10 12 13 14 16 17
2 2 1 1 1 2 1 1 1 2 2 2 2 2 2 2 3 3 3 2 2 2 2 4 8 10 11 12 12 11 10 9 8 7 10 9 9 9 9 9 10 11 11 12 13 14 13 11 10 10 13 13 14 14
2 2 2 2 2 1 1 1 2 2 3 3 3 3 3 2 5 4 3 3 2 2 2 3 5 7 12 10 11 12 13 13 11 13 10 9 9 9 8 8 9 10 9 9 10 11 10 11 9 9 9 10 12 14
2 2 2 2 2 2 2 2 2 2 3 3 4 3 5 6 5 4 3 3 2 2 2 6 10 9 10 12 16 15 15 14 12 9 8 9 7 7 8 8 8 8 9 8 8 8 10 9 9 10 10 10 12 12
2 3 3 2 2 2 2 3 3 3 3 4 5 5 5 5 5 5 6 6 5 6 8 10 10 12 13 12 14 14 10 14 10 9 10 9 8 8 9 9 9 9 9 9 9 10 10 10 10 10 11 12 12 14
3 3 3 2 2 3 4 4 4 3 3 3 3 3 4 6 6 7 7 7 8 7 10 9 10 11 13 12 13 13 13 10 13 9 9 8 8 8 8 9 10 10 10 10 10 11 11 12 13 13 13 13 14 14
4 4 4 3 4 4 4 5 4 4 3 3 4 4 5 7 6 6 7 6 7 9 9 10 12 13 13 9 10 11 14 13 14 10 8 8 8 8 8 9 9 9 11 11 11 11 12 14 14 14 13 14 14 14
5 5 5 5 4 5 5 5 5 4 4 5 5 4 3 5 7 9 9 10 10 11 12 12 13 12 13 15 16 15 15 13 11 9 8 8 8 8 10 11 12 12 13 13 13 13 13 14 14 14 14 14 13 13
5 6 6 5 5 6 7 6 6 4 4 4 4 4 6 6 7 8 10 12 13 13 14 13 14 14 16 15 15 14 13 8 8 9 9 9 9 10 11 12 13 13 13 13 13 14 14 14 14 14 13 14 14 13
6 6 5 6 7 7 7 7 6 6 6 6 7 9 10 11 12 12 12 13 13 13 14 11 15 13 12 11 10 10 9 7 7 8 9 9 10 10 11 12 13 13 13 13 13 14 14 14 14 14 14 14 13 13
6 5 7 7 8 8 6 6 8 9 10 10 10 11 11 11 11 11 11 12 12 14 15 15 11 10 11 9 8 6 6 6 7 8 8 9 10 10 11 11 12 13 13 13 13 13 13 14 14 14 13 13 14 13
5 5 7 7 8 8 8 8 10 11 11 11 11 11 11 11 10 11 11 11 12 13 14 13 13 11 9 8 8 8 8 8 8 9 9 10 10 10 10 11 11 11 12 13 13 13 13 14 14 14 14 14 13 14
6 6 6 7 6 6 8 9 8 11 11 10 10 11 11 11 11 11 12 12 12 13 14 13 11 9 9 10 10 10 10 9 9 9 9 10 10 10 11 11 11 11 11 12 13 13 13 13 13 13 13 14 14 14
7 7 6 6 6 7 9 9 9 10 11 10 11 11 11 11 12 12 12 13 13 12 12 12 12 11 11 11 11 10 9 9 9 10 10 12 11 11 11 12 13 12 12 12 12 12 12 12 12 12 12 12 13 13
6 6 7 6 7 7 8 8 10 9 9 11 11 11 11 11 10 10 10 12 11 11 10 9 8 8 8 8 8 8 8 9 9 9 11 11 12 12 12 12 12 12 12 12 12 11 11 11 10 11 11 11 11 11
7 8 5 6 7 7 8 7 8 8 8 10 10 9 8 9 9 8 9 9 7 7 7 8 8 8 8 8 9 9 9 9 9 9 9 10 10 10 10 10 10 10 10 10 10 10 10 9 9 9 10 9 10 10
9 8 6 7 7 7 8 9 9 8 10 10 10 10 10 10 9 8 7 7 8 8 8 9 9 10 10 10 10 10 10 11 11 10 10 11 10 10 10 10 10 10 10 10 9 9 9 8 9 8 9 9 9 9
10 6 6 7 9 9 10 11 11 11 11 11 11 9 11 10 10 10 9 9 9 10 11 11 11 11 11 10 10 10 9 10 11 12 11 11 12 11 10 10 10 9 8 8 8 8 8 8 8 8 8 8 8 8
7 8 9 8 10 12 13 13 13 14 13 13 12 12 12 11 12 10 9 9 11 10 10 10 10 10 10 10 9 9 9 9 10 10 9 9 10 11 11 10 8 7 7 6 7 6 7 7 7 7 7 7 6 6
8 11 9 13 14 14 14 14 14 14 14 14 14 14 14 14 13 10 9 9 9 10 10 9 9 10 9 8 8 8 8 8 8 8 8 8 7 7 7 7 7 6 4 4 4 5 5 5 5 5 6 6 5 4
11 14 13 11 12 13 14 14 14 14 14 14 15 15 14 12 9 8 8 7 7 8 8 8 8 8 8 8 8 7 7 7 7 7 8 7 6 5 4 4 4 2 3 2 2 2 2 2 2 3 3 3 3 3
13 13 13 14 14 14 14 15 15 14 15 14 13 12 11 9 7 6 6 6 6 5 5 5 6 7 8 7 7 7 7 6 6 6 7 7 6 4 3 3 2 1 1 1 0 1 -0 -1 -0 0 1 1 1 1
15 15 15 15 15 14 14 14 13 13 12 13 12 10 7 4 3 3 4 5 5 5 5 6 7 7 7 7 7 6 6 4 4 4 5 5 4 3 2 1 1 1 1 0 -0 -1 -2 -2 -2 -1 -1 -0 -0 -0
15 16 15 15 14 13 13 13 12 10 9 7 4 4 3 3 4 4 4 4 5 7 7 7 7 6 5 5 5 5 4 3 2 1 1 2 2 1 0 -0 -0 -0 -1 -1 -1 -1 -1 -1 -1 -1 -1 -2 -2 -3
16 15 15 14 14 13 12 11 9 9 8 6 5 4 4 4 4 6 6 7 7 7 6 6 6 5 4 4 3 2 2 1 -1 -2 -3 -2 -1 -2 -1 -1 -1 -1 -1 -1 -1 -1 -1 -1 -1 -2 -2 -3 -3 -3
16 16 16 16 14 13 11 9 10 9 9 8 8 7 7 6 6 7 5 6 6 6 5 4 4 3 2 2 2 1 0 0 -1 -3 -4 -4 -4 -3 -2 -2 -2 -2 -2 -2 -1 -1 -2 -2 -3 -3 -3 -3 -4 -4
16 16 15 15 16 15 14 11 10 10 10 11 9 9 10 8 7 7 6 5 4 4 4 4 3 2 1 0 0 -0 -0 -1 -2 -3 -3 -4 -4 -4 -4 -4 -3 -3 -3 -2 -2 -3 -3 -4 -4 -4 -4 -4 -4 -4

GFSWCAN_850_temp_006.txt.gz
Temp
2 2 2 1 2 2 2 2 2 2 2 2 2 2 2 2 2 2 2 2 2 1 2 3 5 6 7 6 4 6 4 9 13 12 12 12 12 16 18 20 22 21 22 23 24 24 23 28 24 25 26 26 27 27
2 2 2 2 2 2 2 2 2 2 2 2 2 2 2 2 2 2 1 2 2 2 2 4 5 6 7 7 8 8 6 5 8 11 11 11 13 15 17 17 22 21 24 24 24 25 26 26 25 25 26 26 25 26
2 2 2 2 2 2 2 2 2 2 2 2 2 2 2 2 2 2 1 2 2 2 3 5 6 8 7 7 7 9 10 9 9 7 7 8 10 11 14 18 19 23 19 23 24 25 26 25 25 25 25 22 21 20
2 2 2 2 2 2 2 2 2 2 2 2 2 2 2 2 2 2 2 2 2 2 3 7 7 8 10 10 9 9 9 9 9 9 9 10 9 10 11 11 14 13 15 17 23 23 23 22 23 23 22 21 20 18
2 2 2 2 2 2 2 2 2 2 2 2 2 2 2 2 2 1 2 2 2 2 3 5 7 9 10 11 11 10 9 9 8 10 8 7 10 9 10 10 11 12 12 13 17 21 21 20 20 20 20 21 20 19
2 2 2 2 2 2 1 1 2 2 2 2 2 2 2 2 2 2 3 3 3 2 2 8 10 10 11 11 11 10 10 10 10 9 8 6 8 9 10 11 11 10 12 12 11 15 17 18 18 18 18 19 19 19
2 2 2 2 2 2 2 2 2 2 2 2 2 2 3 3 2 2 3 3 3 3 3 5 8 10 11 12 11 11 11 11 11 7 7 7 8 9 10 10 10 10 12 11 12 11 14 14 14 16 16 17 17 17
3 3 3 3 2 2 2 2 2 2 3 3 4 4 4 3 4 4 4 3 3 2 2 3 6 7 10 12 13 12 12 11 7 7 6 9 8 8 10 10 10 9 10 11 12 13 12 12 11 12 14 15 15 15
3 3 3 3 3 2 3 3 4 4 4 4 4 4 4 3 4 5 4 3 3 2 3 4 5 7 7 6 9 12 11 10 8 7 8 9 8 8 8 9 9 10 10 11 12 12 12 11 11 10 11 12 13 12
4 4 3 3 3 3 3 4 5 5 5 5 5 5 5 5 5 5 3 3 2 2 2 5 8 7 6 7 12 13 13 13 9 8 8 8 7 7 7 8 8 9 9 11 11 10 11 10 10 10 10 11 11 12
4 4 4 4 4 3 4 5 5 4 4 5 6 6 6 6 5 5 5 5 5 5 6 9 9 9 9 8 11 12 11 13 10 8 9 8 8 8 7 8 8 8 9 9 9 10 10 11 11 10 10 10 11 11
5 5 5 5 4 4 5 6 5 4 4 4 4 4 4 6 6 5 5 6 6 5 7 10 11 12 12 13 9 9 10 11 9 9 9 8 7 8 8 8 9 10 10 9 10 10 11 13 14 13 13 13 13 13
6 6 6 6 6 5 5 6 5 5 5 4 5 6 6 6 6 7 6 5 7 7 11 12 11 9 9 9 9 8 10 9 9 9 8 7 7 8 8 10 10 10 11 12 11 12 13 14 14 14 14 14 14 14
7 7 7 7 6 6 7 7 6 6 5 6 7 7 6 6 6 7 8 9 10 8 9 14 14 7 6 9 9 9 12 11 10 10 9 8 7 8 9 10 11 11 12 13 13 13 14 14 12 13 14 14 13 13
7 7 7 7 7 7 8 8 8 6 6 7 8 7 9 10 11 10 11 12 11 11 12 15 16 15 12 12 11 12 11 8 8 9 9 8 9 10 11 12 13 13 13 14 14 14 14 14 14 13 13 12 12 13
7 7 6 7 8 8 8 9 9 8 8 9 10 12 12 13 13 13 14 14 14 14 14 15 14 13 11 10 8 7 8 7 7 8 8 9 10 10 11 11 13 13 14 14 14 14 14 13 14 14 14 14 13 13
7 7 7 8 9 9 9 9 11 11 11 12 12 13 12 12 11 12 12 13 14 15 14 13 11 10 10 8 6 6 7 6 7 8 9 9 9 11 11 11 11 12 13 13 13 13 13 13 13 14 14 14 13 13
6 6 7 7 8 9 10 10 11 13 12 12 12 13 12 13 12 12 13 13 14 15 14 13 13 10 8 8 8 8 8 8 8 9 9 10 10 10 11 12 12 12 12 12 12 13 14 13 13 13 13 13 13 12
7 7 7 7 7 8 10 11 10 12 12 12 12 12 12 12 12 13 14 14 14 14 14 13 11 10 10 9 10 9 9 9 9 10 10 11 11 11 11 12 12 12 12 12 13 13 13 13 13 13 13 13 13 13
8 8 7 7 8 9 11 11 11 12 11 11 12 12 12 11 11 12 12 12 12 12 12 11 10 9 8 8 8 9 9 9 10 11 12 12 12 12 13 12 12 12 12 12 12 12 12 12 12 12 12 12 12 12
8 8 8 8 9 9 10 10 11 11 10 11 11 11 10 10 9 9 9 10 9 8 9 8 8 9 9 10 9 10 10 10 10 10 11 12 12 11 11 12 12 11 12 12 12 12 11 10 10 10 11 11 11 11
9 10 8 9 9 10 10 10 10 10 10 12 11 11 10 11 10 9 9 10 9 8 8 9 10 11 10 10 10 10 10 10 11 11 11 11 11 11 11 11 11 11 11 11 11 11 10 10 9 10 10 10 10 11
11 10 9 9 10 10 11 11 11 12 12 12 12 12 11 11 10 11 10 9 10 10 11 10 11 11 11 10 10 10 11 12 12 12 12 11 11 12 12 12 12 11 10 10 10 9 9 9 9 9 9 9 9 9
11 8 9 10 12 11 13 13 13 13 14 14 13 11 12 11 11 11 9 10 11 11 11 11 11 11 11 10 10 9 9 10 11 11 10 11 11 10 9 9 9 8 8 8 8 8 8 8 8 8 8 8 8 8
9 10 11 9 13 14 15 14 15 15 15 15 14 13 13 12 12 10 9 9 9 9 10 10 10 10 10 10 10 9 9 9 10 10 9 9 9 9 9 7 6 5 5 6 6 6 6 6 6 6 6 7 6 6
7 13 12 15 14 15 15 15 15 15 15 15 15 15 10 9 11 9 8 8 9 9 9 8 8 9 9 9 9 9 9 8 8 9 9 8 7 7 7 6 5 4 4 4 4 4 4 3 3 3 4 4 4 4
11 15 14 14 15 15 15 14 15 15 14 12 14 14 13 10 8 7 6 5 6 7 7 7 7 9 9 9 9 8 8 8 7 7 8 7 6 5 5 4 3 2 3 3 2 2 2 1 1 2 2 2 3 3
11 13 8 9 13 13 11 15 15 14 14 14 13 12 11 9 6 5 5 5 6 6 7 7 8 9 9 8 8 8 7 6 6 6 7 6 5 4 3 3 2 2 2 1 1 1 0 0 1 1 1 1 2 1
16 14 14 15 15 16 15 14 13 13 11 12 12 10 7 4 5 6 7 6 7 7 8 9 9 8 8 7 7 6 6 4 3 3 3 4 4 3 2 2 2 1 1 1 1 0 -0 -0 0 0 0 0 -0 -0
17 16 15 14 15 14 13 12 12 11 10 8 7 6 5 5 6 6 7 8 9 9 8 8 8 7 6 6 5 5 4 2 1 0 -0 1 1 1 1 1 1 1 0 1 1 1 0 0 0 0 -0 -1 -1 -1
17 17 17 16 15 15 14 13 11 10 10 9 9 9 8 7 7 7 7 7 8 7 7 7 6 6 4 4 4 3 3 2 0 -1 -2 -1 -1 -1 -1 -0 -0 -0 -0 0 1 1 -0 -0 -1 -1 -1 -2 -2 -2
18 17 17 17 15 14 13 13 13 12 11 10 10 8 8 7 7 7 7 7 7 6 6 6 5 5 4 3 2 2 1 1 -1 -2 -3 -3 -3 -2 -2 -1 -1 -1 -1 -1 -1 -1 -1 -2 -2 -2 -2 -2 -2 -2
18 17 17 17 17 17 14 14 12 12 12 12 11 11 10 9 9 8 7 6 6 5 4 4 4 4 3 2 1 1 1 0 -1 -2 -2 -3 -3 -3 -3 -3 -3 -2 -2 -1 -2 -2 -2 -2 -2 -2 -2 -2 -3 -3

GFSWCAN_850_temp_009.txt.gz
Temp
4 4 3 3 2 2 2 2 2 2 2 2 2 2 2 2 2 2 2 2 2 1 2 2 3 5 5 6 5 6 5 5 5 8 11 10 10 12 12 13 15 12 12 18 20 22 22 23 24 24 20 24 24 24
3 3 3 2 2 2 2 2 2 2 2 2 2 2 2 2 2 2 2 2 2 2 2 3 4 4 4 5 7 4 4 4 3 6 9 9 11 10 11 11 16 13 13 14 18 19 20 23 21 22 21 19 19 20
3 3 2 2 2 2 2 2 2 2 2 2 2 2 2 2 2 2 2 2 2 2 2 3 4 7 7 6 7 6 7 6 4 5 6 8 8 10 10 12 13 16 14 17 18 21 21 20 23 19 21 18 17 18
3 3 2 2 2 2 2 2 2 2 2 2 2 2 2 2 2 2 2 2 2 2 2 4 6 7 7 8 7 7 7 7 7 6 6 7 7 9 9 10 11 12 12 13 15 18 17 16 17 19 18 17 17 17
3 3 3 3 3 3 2 2 2 2 2 2 2 2 2 2 2 2 2 3 2 2 2 3 4 9 9 10 9 10 8 8 9 7 7 8 8 9 9 9 10 11 12 12 13 12 12 17 18 19 18 18 18 18
4 4 4 3 3 3 2 2 2 2 2 2 3 3 3 2 2 2 3 3 3 2 2 3 7 8 9 10 11 10 10 9 9 9 7 8 7 8 9 9 10 10 10 11 12 12 13 15 16 18 18 17 17 17
4 4 4 4 3 3 3 3 3 4 4 4 4 4 4 3 3 2 3 3 3 2 2 4 6 7 8 9 11 11 10 10 10 8 7 7 6 6 9 9 10 10 10 11 11 14 12 11 11 15 15 15 15 16
5 5 4 4 4 4 3 3 4 5 5 5 5 5 4 4 4 4 4 5 3 2 2 3 5 6 7 8 11 11 11 10 8 7 6 6 7 7 9 9 9 9 10 11 10 11 11 11 13 13 13 14 14 15
5 5 5 5 5 5 4 4 5 5 5 6 5 5 5 5 4 5 4 4 3 3 3 4 4 5 6 6 8 7 8 7 7 6 6 6 7 8 8 8 8 9 9 10 10 10 11 11 11 10 12 13 14 14
6 6 6 6 6 5 5 5 6 5 5 6 6 6 6 5 5 5 4 3 3 2 2 4 6 5 6 6 7 8 9 7 6 6 7 7 7 7 7 8 8 9 10 9 10 10 10 10 10 11 11 12 12 13
6 6 6 7 7 6 6 6 6 5 6 5 6 6 7 6 5 4 4 4 4 4 4 5 7 7 7 7 8 9 9 8 7 8 8 8 7 7 7 7 8 9 9 9 10 11 11 11 11 11 11 11 12 13
6 6 7 7 7 7 7 7 6 5 4 5 4 4 5 6 6 5 4 4 4 4 5 6 8 7 7 7 8 8 9 8 9 9 8 7 7 7 7 8 8 9 9 10 10 11 11 11 13 13 13 13 13 13
7 7 7 8 8 8 7 7 6 6 6 5 5 6 6 6 5 6 5 4 5 7 8 9 8 7 7 8 8 7 7 9 8 8 7 7 7 7 8 8 8 9 9 10 11 12 12 13 13 14 14 14 13 13
7 8 8 8 8 8 8 8 7 7 6 7 7 5 7 7 6 7 8 6 7 7 8 8 7 7 7 8 7 9 11 10 9 8 7 7 8 8 8 8 10 10 11 11 10 12 12 13 13 13 13 13 13 13
7 8 8 8 8 9 9 9 8 8 7 8 9 4 10 12 12 13 13 12 11 12 12 12 11 11 9 9 9 9 9 7 7 8 8 7 8 9 10 11 12 13 13 13 13 13 13 13 13 13 13 13 13 13
7 8 7 7 9 9 10 10 10 9 9 10 11 12 12 10 11 12 13 13 14 13 13 13 11 10 8 7 7 6 7 6 7 7 8 9 9 10 10 12 12 13 13 12 12 13 13 13 13 13 13 13 13 13
7 7 7 8 9 10 10 10 10 11 12 11 11 12 11 10 10 12 13 13 14 13 12 11 10 8 7 6 6 7 7 7 7 8 9 10 9 9 10 10 13 11 12 12 13 12 13 13 13 13 12 12 13 13
8 8 8 8 9 10 11 11 11 12 12 11 10 12 11 10 10 12 12 12 12 12 13 11 11 9 8 8 8 8 8 7 9 9 10 11 10 10 11 11 11 11 11 11 12 12 12 12 12 12 12 13 13 13
8 8 8 8 9 10 10 11 11 12 12 10 10 11 11 10 10 10 11 11 11 11 11 11 9 8 8 8 9 8 9 9 9 10 10 10 10 10 12 12 12 12 12 12 12 11 11 11 11 11 11 12 12 12
9 9 9 9 9 9 11 11 11 12 12 11 11 10 10 10 10 10 10 10 10 10 9 9 8 8 8 9 9 9 10 11 11 11 11 11 11 11 11 12 12 12 12 11 11 11 10 10 10 10 10 11 11 11
10 9 10 9 9 10 10 10 11 11 10 11 11 10 10 10 10 10 10 10 9 9 9 10 10 10 10 10 10 10 10 11 11 11 11 11 11 12 11 11 11 11 11 11 10 9 9 9 9 10 10 10 10 10
10 10 10 10 10 10 10 11 11 11 11 12 12 11 10 10 10 10 10 10 9 9 10 10 10 10 10 10 10 10 11 11 11 11 11 11 10 10 11 11 11 10 10 9 9 9 8 8 9 9 9 9 9 9
12 11 9 10 11 11 12 11 12 12 12 13 12 12 11 10 10 10 10 10 10 10 10 10 10 10 10 10 9 10 10 10 10 10 10 10 10 9 8 8 8 7 7 7 7 7 7 7 7 7 7 8 8 8
11 11 10 11 12 11 13 13 13 14 14 14 12 11 11 11 11 10 9 9 10 10 9 9 9 9 10 10 9 9 9 9 9 9 9 9 8 7 7 7 6 5 5 5 5 5 5 5 5 6 5 5 6 6
10 11 11 11 13 13 15 15 15 15 14 15 13 10 8 8 8 10 9 8 8 8 8 8 8 9 9 9 9 9 8 8 8 8 8 8 7 7 6 5 4 4 4 4 3 3 3 3 3 3 4 3 4 4
6 13 11 12 13 13 13 13 15 15 15 14 12 9 8 9 10 8 7 6 7 7 7 7 8 9 9 9 9 8 7 7 7 7 7 6 5 5 4 4 3 3 3 2 2 2 1 1 1 2 2 3 3 3
9 8 10 10 11 10 14 14 15 15 15 14 13 13 12 9 8 8 7 6 6 7 7 8 8 8 8 8 8 7 6 6 6 5 5 5 4 3 3 3 2 2 2 2 1 1 1 1 1 1 1 2 1 1
10 10 9 11 11 14 14 14 15 14 13 13 13 12 10 9 7 7 6 7 7 8 8 9 9 8 7 7 6 6 5 4 5 5 4 3 3 2 2 2 2 2 1 1 1 1 0 0 0 0 0 0 -0 -0
12 13 11 12 15 15 14 14 13 12 11 12 11 10 8 6 7 8 7 7 8 8 8 8 8 7 6 6 5 4 3 2 2 1 1 1 1 1 1 1 1 1 1 1 1 0 0 0 0 0 -0 -0 -1 -1
16 16 16 16 15 15 13 13 12 11 10 9 8 7 7 7 7 7 8 8 8 8 7 7 7 6 5 5 4 4 2 0 -0 -1 -0 -0 0 0 -0 -0 0 0 0 1 1 1 -0 -0 -0 -1 -1 -1 -2 -2
18 18 17 16 16 15 14 12 12 11 11 10 10 10 9 8 8 8 8 7 7 7 6 6 6 5 4 4 3 3 2 0 -0 -0 -1 -1 -1 -1 -1 -1 -1 -1 -1 -0 -0 -1 -1 -1 -1 -2 -1 -2 -2 -2
18 18 18 18 16 15 14 13 12 13 12 12 11 10 9 8 8 7 7 7 7 6 5 5 5 4 3 3 2 2 1 1 0 -1 -1 -2 -3 -3 -2 -2 -2 -2 -2 -1 -1 -1 -2 -2 -1 -2 -2 -2 -3 -3
18 18 17 17 16 15 14 14 14 13 13 12 11 11 10 10 9 8 7 6 5 5 4 4 4 3 3 2 1 1 1 0 -0 -1 -1 -2 -2 -2 -3 -3 -3 -3 -2 -2 -1 -1 -2 -2 -2 -3 -3 -3 -3 -3

GFSWCAN_850_temp_012.txt.gz
Temp
4 4 3 3 3 2 2 2 2 2 2 2 2 2 2 2 2 2 2 2 2 1 2 2 2 2 2 3 3 5 5 4 2 5 6 7 6 8 9 11 11 10 11 13 16 15 17 19 20 24 19 19 21 22
4 4 3 3 3 3 3 2 2 2 2 2 2 2 2 2 2 1 2 2 1 1 2 3 3 3 3 3 3 4 5 4 4 4 4 5 8 8 7 10 11 11 11 13 15 13 14 17 17 17 18 18 17 19
4 4 4 3 3 3 3 3 2 2 2 2 2 2 2 2 2 2 2 2 2 2 2 2 5 6 5 6 6 3 4 5 4 4 3 4 7 8 8 8 11 11 11 13 14 15 13 14 16 16 17 17 18 19
4 4 4 4 4 3 3 3 3 3 2 3 2 2 2 2 2 2 2 2 1 2 1 3 4 4 6 6 6 5 6 6 6 5 4 3 5 8 7 9 9 11 11 12 12 13 12 14 14 16 16 17 17 18
5 5 5 4 4 4 4 4 3 3 3 4 4 2 2 3 3 2 3 3 3 2 2 3 4 7 7 7 8 7 6 5 6 4 4 5 7 7 8 8 9 10 10 12 12 11 11 11 13 16 16 16 16 18
5 5 5 5 5 5 5 4 4 4 4 4 4 4 4 3 3 2 2 3 3 2 2 2 5 7 8 9 9 9 8 7 6 7 6 8 7 7 7 8 9 10 10 10 11 11 10 12 13 14 15 14 14 15
6 6 6 6 6 5 5 5 5 5 5 5 4 4 4 4 3 2 4 4 3 2 2 3 2 6 8 8 10 10 10 8 8 8 8 7 7 5 6 8 8 9 9 11 11 12 12 12 11 12 13 14 15 15
6 6 6 6 7 6 6 5 5 6 6 5 5 5 5 4 4 4 5 4 3 1 2 3 3 5 6 7 8 9 9 9 7 7 6 6 5 5 8 8 8 9 10 10 11 12 12 12 13 14 14 14 15 15
6 6 7 7 7 7 7 6 6 6 6 7 6 6 6 5 4 4 4 4 3 2 3 3 4 4 5 6 7 7 7 6 6 5 5 5 7 7 7 7 8 9 10 10 10 11 13 13 12 13 14 13 13 14
7 7 7 7 8 8 7 6 7 7 6 7 6 6 6 5 5 4 4 3 3 2 2 2 3 4 4 6 6 6 6 6 5 5 6 6 7 7 7 8 9 9 9 9 10 9 10 11 12 12 11 11 12 13
7 7 7 7 8 8 7 7 7 7 6 6 6 6 6 5 5 4 4 3 3 4 3 3 3 4 6 6 6 7 6 6 5 7 7 7 6 7 7 8 8 9 8 9 9 10 10 11 11 11 11 11 12 13
7 7 7 8 8 9 7 8 8 7 6 5 4 5 5 5 5 4 2 2 3 4 4 5 6 6 6 6 5 7 7 7 8 8 7 6 7 7 7 8 8 8 8 9 10 10 10 10 11 12 12 12 13 13
7 7 8 8 9 9 8 9 9 8 7 7 6 6 6 6 5 4 4 5 5 5 6 7 7 6 6 7 7 7 7 8 8 7 5 6 6 7 7 8 9 9 10 11 11 11 12 12 12 12 13 13 13 13
7 8 8 9 9 9 10 10 9 9 7 7 7 6 6 6 7 7 8 8 9 8 8 8 7 7 7 8 7 9 8 8 8 7 6 6 7 7 8 8 8 8 11 9 10 12 13 13 13 13 13 13 13 13
8 8 9 9 9 10 10 10 10 10 8 8 8 5 7 8 8 10 11 12 11 11 10 9 9 9 7 8 7 8 8 6 6 7 7 8 8 8 9 9 10 9 10 10 10 12 12 12 12 12 13 13 13 13
8 9 8 9 10 10 11 11 11 10 10 10 9 8 9 8 9 10 10 10 10 12 12 10 8 8 7 6 7 6 6 7 7 8 7 9 8 9 10 10 10 11 11 11 12 12 12 12 12 12 12 12 13 13
9 8 8 9 10 11 11 11 10 10 11 10 9 9 10 9 8 9 9 9 11 11 10 8 8 7 6 6 6 6 7 7 7 7 8 9 9 9 10 11 11 11 11 11 11 12 12 12 12 12 11 11 12 12
9 8 8 9 10 11 11 11 11 12 10 9 8 9 10 9 8 9 9 9 10 10 10 9 9 8 7 6 7 7 7 8 9 8 8 9 10 10 10 11 11 10 11 11 11 11 11 11 11 11 11 11 11 11
9 9 9 10 10 11 11 11 11 11 11 10 10 10 9 9 9 9 10 10 10 10 9 8 8 7 6 7 7 8 10 10 9 10 9 9 10 11 10 10 10 11 11 10 10 10 10 10 10 10 10 10 10 10
10 10 10 10 10 10 11 11 11 11 10 10 10 10 10 10 10 9 9 9 10 9 9 7 7 7 7 8 9 10 10 11 11 10 10 11 11 11 11 10 10 9 9 9 9 9 9 9 9 9 9 9 9 9
11 11 11 10 10 10 10 11 11 11 11 11 11 10 10 10 10 9 9 9 9 9 8 9 9 9 10 10 10 10 10 10 10 10 10 10 10 10 9 9 9 8 8 7 8 8 8 8 8 8 8 8 8 8
12 12 11 11 10 11 11 11 11 11 11 11 11 11 10 9 10 10 9 9 8 8 9 9 9 9 9 9 9 9 9 9 9 9 9 10 9 8 7 6 7 6 6 6 6 6 6 6 7 7 6 6 6 6
12 12 11 11 11 11 12 11 11 12 10 11 11 10 10 10 10 9 9 8 8 8 8 9 9 9 9 9 9 9 9 9 8 8 7 7 7 6 6 6 6 5 5 4 5 5 6 5 5 5 5 5 4 4
12 11 11 11 11 11 13 13 13 13 13 10 7 8 8 9 9 9 7 7 7 8 8 8 8 8 9 8 8 8 8 8 7 7 6 6 6 5 5 4 4 4 4 3 3 3 4 4 3 3 3 4 3 2
11 11 11 11 11 11 11 11 13 12 11 9 8 7 7 8 8 8 7 6 7 7 7 8 8 8 8 7 7 7 7 7 7 6 5 5 4 4 4 3 3 2 2 2 2 2 2 2 2 2 2 2 2 1
6 10 11 10 9 8 10 11 11 12 12 12 10 8 8 8 8 6 5 6 7 7 7 8 8 8 7 7 6 6 5 5 5 4 4 4 3 2 2 3 2 2 2 1 1 1 1 1 1 1 0 1 1 1
7 10 11 10 10 10 11 13 13 12 11 11 11 11 9 8 6 6 7 7 7 7 8 8 7 7 6 6 5 5 5 4 3 3 3 3 2 2 1 1 1 1 1 1 1 1 0 0 0 0 -0 -0 -0 -1
12 10 8 11 11 12 13 12 11 9 9 11 11 8 8 7 5 8 7 7 7 8 7 7 6 6 5 5 4 4 4 3 3 2 2 1 1 1 1 1 1 1 1 1 0 0 0 0 0 -0 -1 -1 -1 -1
12 13 12 12 12 14 13 12 11 11 10 10 8 7 7 7 8 7 7 7 8 7 7 6 6 5 4 4 3 3 2 2 2 1 0 -0 -0 -0 -0 -0 -0 0 0 0 -0 -0 -0 -1 -1 -1 -1 -1 -2 -2
14 14 13 14 14 13 13 13 11 11 11 11 9 8 8 8 7 7 7 7 7 7 6 6 5 4 4 3 3 2 1 1 1 0 -1 -1 -1 -1 -1 -1 -1 -1 -0 -1 -1 -1 -1 -1 -1 -1 -2 -2 -2 -2
17 16 15 15 15 14 13 12 11 11 10 10 9 9 8 8 7 7 7 7 6 6 6 5 4 3 3 3 2 2 1 0 -0 -0 -1 -2 -2 -2 -2 -2 -2 -1 -1 -1 -1 -1 -2 -2 -2 -2 -2 -3 -3 -3
17 17 17 15 14 13 12 12 11 11 11 10 10 9 8 8 8 7 7 7 6 6 4 4 4 3 2 2 2 1 1 0 -0 -1 -1 -2 -2 -2 -2 -2 -3 -2 -2 -2 -2 -2 -2 -2 -3 -3 -3 -3 -3 -3
18 17 17 17 14 13 13 12 12 12 12 11 10 10 9 9 8 7 6 6 6 5 4 3 3 2 2 1 1 1 1 0 -0 -1 -1 -1 -2 -2 -2 -2 -2 -2 -2 -3 -2 -3 -3 -3 -3 -3 -4 -4 -4 -3

GFSWCAN_850_temp_015.txt.gz
Temp
5 5 5 4 4 4 4 3 3 3 2 2 2 2 2 2 2 2 2 2 1 1 2 2 2 2 2 2 2 3 3 3 2 5 5 4 4 6 7 8 10 10 11 10 12 13 13 14 15 15 14 14 19 21
5 5 5 5 5 4 4 3 3 3 3 2 2 2 2 2 2 2 1 2 1 1 1 3 3 3 2 3 2 3 4 3 5 3 2 3 4 5 6 7 9 9 11 11 13 13 13 14 14 13 14 14 15 19
6 5 5 5 5 5 4 4 4 4 3 3 3 2 2 2 2 2 2 2 1 1 2 2 4 6 4 5 3 2 3 3 4 5 4 3 4 5 5 7 9 10 8 12 12 14 13 14 15 13 14 14 15 16
6 6 5 5 6 5 5 5 5 4 4 3 3 3 3 2 3 2 2 2 1 1 1 2 4 4 4 4 4 4 4 4 4 3 3 3 4 4 5 6 5 7 9 12 12 12 13 14 14 12 14 14 14 15
6 6 6 6 6 5 5 6 6 5 4 4 4 4 3 2 2 2 3 3 2 1 2 2 3 6 6 6 5 5 4 3 3 4 4 4 5 5 6 5 6 9 10 10 12 11 12 11 13 12 14 13 13 14
6 6 6 6 6 6 6 6 6 6 5 5 4 3 3 4 3 2 3 3 3 2 1 2 3 7 7 6 6 6 5 3 3 5 3 6 7 5 6 4 8 9 8 9 11 11 11 13 12 11 13 13 13 14
6 6 6 6 7 7 6 7 6 6 6 6 6 5 5 4 3 2 2 2 2 2 2 2 3 5 6 6 7 7 5 4 5 5 5 6 6 5 5 6 8 8 8 8 10 10 10 12 11 11 13 13 14 14
6 7 7 7 7 7 7 8 7 7 7 7 6 5 5 4 3 3 4 3 2 2 1 3 3 4 5 6 7 7 6 7 6 7 6 6 5 5 5 7 8 7 8 8 10 10 11 12 11 12 12 14 14 14
7 7 7 8 8 8 8 8 7 8 8 7 7 6 6 5 4 5 4 4 3 2 1 2 3 4 4 5 6 7 7 6 6 5 5 5 4 5 7 7 6 8 8 10 10 10 11 12 12 13 13 12 13 13
7 7 7 8 8 8 8 8 8 9 8 7 7 6 6 5 4 4 4 3 2 2 1 2 1 3 3 5 6 6 5 5 4 4 5 4 4 5 6 7 8 9 9 10 10 10 10 11 12 13 12 12 13 13
7 7 7 8 8 8 9 8 8 9 8 7 7 6 5 5 5 4 3 3 3 2 2 2 2 2 4 5 6 6 4 5 5 5 6 4 4 7 7 8 8 8 9 10 10 10 11 11 11 12 12 12 13 13
7 7 7 8 8 9 9 9 9 9 8 6 6 5 5 5 5 4 3 3 2 3 3 4 5 4 5 6 5 6 5 5 7 7 6 5 5 7 7 8 8 9 9 9 9 10 11 11 12 12 12 12 12 13
8 8 8 8 9 9 10 10 10 9 9 8 7 6 6 7 6 5 5 6 7 5 5 6 7 6 6 6 6 6 8 8 8 5 5 4 6 7 7 8 8 9 9 10 10 11 11 11 11 12 12 12 13 13
8 8 9 9 9 10 11 11 11 10 9 8 7 5 5 6 7 7 7 7 9 8 8 7 7 6 7 7 7 8 7 7 7 6 6 7 8 8 8 8 8 9 9 10 10 11 11 11 12 12 12 13 13 13
9 9 9 9 10 11 11 11 11 11 9 9 8 4 6 8 8 8 8 8 8 9 9 8 8 8 6 7 7 6 7 6 6 7 8 7 7 8 8 8 9 8 10 10 10 10 10 11 12 12 12 12 13 13
10 9 9 10 11 11 11 12 11 10 10 10 9 8 8 8 8 8 8 8 9 9 10 9 7 7 7 6 7 6 6 6 7 7 7 7 8 8 8 9 10 10 11 11 11 11 11 11 11 12 12 12 12 12
10 8 9 10 11 11 12 12 11 11 10 9 9 9 8 7 7 7 8 8 10 8 9 7 7 7 6 7 7 7 8 7 7 7 8 9 9 9 10 10 10 11 11 11 11 11 11 11 11 11 11 11 11 11
9 9 9 11 12 12 11 11 11 10 10 9 8 9 9 8 7 8 8 9 9 9 8 8 8 8 7 8 7 7 7 8 9 9 9 9 9 9 10 10 10 10 10 10 10 10 10 10 10 10 10 10 11 11
10 10 10 11 11 11 11 11 11 10 10 10 10 9 9 9 9 9 9 9 9 9 9 8 6 5 5 5 6 8 9 9 9 9 9 9 9 9 9 9 9 9 9 9 9 9 9 9 9 9 9 9 9 9
11 11 10 10 11 11 11 11 11 11 10 10 10 10 9 9 9 9 9 8 9 8 7 6 6 6 6 7 7 8 9 10 10 9 7 8 8 9 8 8 8 8 8 9 8 8 8 8 8 8 8 8 8 7
12 12 12 12 11 11 11 11 11 11 11 11 10 10 10 9 8 8 8 8 8 7 6 6 7 8 8 9 9 9 9 9 8 8 6 6 6 7 7 7 6 6 6 6 6 6 6 6 5 5 5 5 6 6
12 12 12 11 11 11 12 11 11 11 11 11 10 10 10 9 8 8 8 7 7 7 6 7 8 8 8 8 8 8 8 8 8 7 7 7 7 7 6 5 5 5 5 5 5 5 4 4 5 5 5 4 4 4
11 11 11 11 11 11 12 11 11 11 8 8 8 9 9 9 9 9 7 7 7 7 7 8 8 8 8 8 8 7 7 8 7 7 6 6 6 5 5 5 5 5 4 3 3 3 3 3 3 3 4 3 3 2
11 11 11 11 11 11 12 12 11 10 9 7 6 7 8 8 8 8 5 6 7 7 7 7 8 8 7 7 7 7 7 6 6 5 5 5 4 3 4 3 3 2 2 2 2 2 2 2 2 2 2 2 1 1
11 10 11 10 10 10 10 10 11 10 9 7 6 6 7 8 6 5 4 6 7 7 7 7 7 7 6 5 5 5 6 6 6 5 4 4 3 3 2 2 2 1 1 1 1 1 1 1 1 1 0 0 -0 -1
6 10 11 10 9 9 8 10 10 9 9 10 8 8 8 7 6 5 5 7 7 7 7 7 7 7 6 5 5 4 4 4 4 4 2 2 2 2 2 2 1 1 1 1 1 0 0 0 -0 0 -0 -0 -1 -1
9 10 11 11 10 10 10 10 10 10 9 9 8 8 7 7 6 6 7 7 7 7 7 7 7 6 6 5 4 3 3 3 3 2 1 1 1 1 1 1 1 0 1 0 0 0 0 -0 -0 -0 -1 -1 -1 -1
13 12 11 11 11 11 10 10 9 8 8 9 9 7 8 6 5 8 7 7 7 7 7 6 5 5 5 4 3 3 2 2 2 1 1 1 0 0 0 0 -0 0 0 0 0 0 -0 -0 -1 -1 -1 -2 -2 -2
13 13 12 11 11 11 12 11 10 11 10 9 7 5 7 8 8 8 7 7 7 7 6 5 5 4 4 3 3 2 1 1 1 0 -0 -1 -1 -1 -1 -1 -0 -0 -0 -1 -1 -1 -1 -1 -1 -2 -2 -2 -2 -2
14 13 12 12 12 11 13 13 12 12 11 10 10 9 8 8 8 7 7 7 7 7 6 5 4 4 3 3 2 2 1 0 -0 -0 -1 -2 -2 -2 -2 -1 -1 -1 -1 -1 -1 -1 -2 -2 -2 -2 -2 -2 -3 -3
15 14 13 14 13 14 13 13 12 11 10 10 10 9 9 8 7 7 7 7 7 6 6 5 4 4 3 2 2 1 1 0 -0 -1 -1 -2 -2 -2 -2 -3 -3 -2 -2 -1 -2 -2 -2 -2 -2 -3 -3 -3 -3 -3
16 15 14 12 13 12 12 12 11 10 10 10 9 9 8 8 7 7 6 6 6 6 5 5 4 3 2 2 1 1 0 0 -0 -1 -1 -2 -2 -2 -2 -3 -3 -2 -2 -2 -2 -2 -3 -3 -3 -3 -4 -4 -4 -3
17 16 16 14 11 11 12 11 11 10 10 10 10 9 9 8 7 7 6 6 6 5 5 4 3 2 2 1 1 0 -0 -0 -1 -1 -1 -2 -2 -2 -2 -2 -2 -3 -3 -3 -3 -3 -3 -3 -4 -4 -4 -4 -4 -4

GFSWCAN_850_temp_021.txt.gz
Temp
7 6 6 7 6 6 6 5 6 6 6 5 5 4 4 3 2 2 2 2 1 1 1 1 1 2 2 2 2 4 4 3 4 5 5 6 5 8 8 10 11 10 10 9 11 11 11 17 18 18 18 16 16 17
6 6 7 7 6 6 6 5 6 6 6 6 5 4 4 3 3 3 2 2 2 1 2 2 1 1 1 2 2 1 3 3 4 4 4 3 6 7 7 8 10 9 11 11 12 13 15 14 14 15 14 15 15 15
7 6 7 7 7 6 6 6 7 7 6 6 5 4 4 3 3 3 3 2 2 1 1 2 4 4 4 4 2 2 2 3 3 3 3 4 4 5 6 8 8 10 10 10 11 13 14 14 14 15 14 14 14 14
7 7 7 7 7 7 6 6 7 7 7 7 6 5 4 3 4 3 3 3 2 2 1 2 3 4 3 3 3 2 2 3 3 2 2 3 4 5 5 7 7 8 8 9 10 11 12 13 14 14 13 14 13 13
7 7 7 7 7 7 6 7 7 8 7 7 6 6 5 4 4 4 3 3 2 2 2 2 2 5 4 4 3 3 2 2 2 3 3 4 4 4 5 5 6 8 8 9 11 12 10 11 11 12 13 13 12 13
7 7 7 6 7 7 6 7 8 8 8 8 7 7 5 5 4 3 3 3 3 2 2 2 3 4 4 5 4 3 2 1 1 2 3 3 5 4 5 5 9 8 8 8 9 9 8 9 9 11 12 12 13 12
7 7 7 7 7 7 7 8 8 8 8 8 7 7 6 5 5 4 4 3 2 1 1 2 3 4 4 4 3 2 1 1 1 1 2 4 5 4 4 5 8 8 8 7 8 7 7 9 10 12 11 12 13 12
8 7 7 7 7 8 8 9 9 9 9 8 8 7 7 6 5 3 3 3 2 1 1 2 3 3 3 5 5 3 2 1 1 2 3 5 5 4 4 6 7 6 6 5 5 6 6 8 9 11 10 11 11 11
8 8 8 8 8 9 9 9 9 9 9 9 7 6 5 5 4 3 3 3 2 2 0 0 3 4 3 3 4 4 3 3 3 3 5 4 5 5 5 5 6 6 5 6 7 7 8 8 9 10 10 10 11 11
9 9 9 9 9 9 9 10 9 10 9 8 7 6 6 5 4 4 3 2 2 1 0 0 -0 2 2 3 5 5 5 4 4 4 2 4 4 4 5 5 5 5 5 6 6 7 8 9 9 10 10 10 11 11
9 10 10 9 10 10 10 10 10 10 9 8 8 7 6 5 4 4 4 3 2 1 0 1 1 2 2 3 5 4 3 2 5 4 3 4 4 5 6 8 9 8 8 8 8 9 9 10 9 10 10 10 10 10
10 10 9 10 10 10 11 11 11 10 9 8 8 8 7 7 7 6 5 5 4 5 4 3 4 3 3 3 5 5 4 3 6 5 5 5 4 5 6 6 6 7 7 9 9 9 9 9 10 10 10 10 10 9
10 10 10 10 10 11 11 11 11 10 10 9 8 8 8 6 4 5 5 5 6 7 7 6 7 6 6 6 7 6 7 7 7 5 4 3 4 4 5 6 6 7 6 6 7 8 9 9 9 8 8 8 8 9
10 10 10 10 11 11 11 11 10 10 9 9 8 5 7 6 5 5 5 5 6 6 7 6 7 6 7 8 8 7 7 7 7 6 5 4 4 4 4 6 6 6 7 6 8 7 7 9 8 8 9 9 9 10
10 10 11 11 11 12 12 12 11 10 9 8 8 5 7 7 6 7 7 5 7 7 8 8 8 8 8 8 7 6 8 6 5 5 4 4 4 5 5 6 7 6 7 7 7 6 6 7 8 7 8 8 9 10
11 11 11 11 11 11 11 11 11 10 9 9 8 8 7 8 8 7 7 7 8 8 9 9 9 9 8 7 7 6 6 6 6 5 4 5 7 7 6 7 7 8 7 8 7 7 8 8 7 7 8 9 9 9
11 11 11 11 11 12 12 12 10 9 9 8 8 7 6 6 6 7 7 7 9 9 9 9 7 6 7 7 6 6 5 5 4 4 4 5 6 6 7 8 9 8 9 9 9 9 8 8 8 9 8 8 8 8
11 11 11 12 12 12 12 11 10 10 9 8 8 7 7 6 6 7 6 8 8 7 8 7 7 5 5 5 5 5 5 5 3 4 5 5 6 7 7 7 8 8 9 8 8 8 9 9 8 7 7 7 8 7
12 12 11 12 12 12 12 11 10 9 9 9 8 8 8 7 8 7 8 8 8 8 7 6 7 6 5 5 5 5 5 5 4 4 5 6 6 6 6 6 6 7 7 7 7 7 7 7 8 8 7 7 7 5
13 13 12 12 12 12 11 11 11 10 10 9 9 8 7 7 7 7 7 7 7 7 7 7 6 5 5 5 5 6 6 6 5 6 5 4 4 5 5 5 5 5 5 5 6 6 6 6 6 6 6 6 5 4
13 13 13 12 12 12 11 11 10 10 10 9 9 9 9 8 7 7 7 7 7 6 6 4 5 6 6 6 7 7 6 6 6 5 5 4 4 4 4 4 4 4 4 3 3 3 4 3 3 4 4 3 2 2
12 12 12 12 12 12 11 10 10 10 9 9 8 8 8 8 8 7 7 7 6 5 5 6 7 7 7 7 6 6 6 5 5 5 4 4 3 3 3 2 2 2 2 2 2 1 2 1 1 2 2 1 1 1
12 12 12 12 12 12 10 10 10 9 9 8 8 9 8 8 7 7 7 6 6 6 6 6 6 6 6 6 6 5 5 5 4 4 4 3 3 2 1 1 1 1 1 1 1 2 1 1 1 1 1 0 0 0
12 12 12 11 11 10 10 10 9 8 8 8 9 9 9 7 7 7 7 7 7 7 6 6 6 6 6 6 5 5 4 4 3 3 3 2 2 2 2 1 0 0 0 0 0 0 0 0 0 0 0 0 -0 -0
11 11 11 10 10 10 11 11 10 10 10 9 9 9 8 6 8 8 7 7 6 6 7 7 6 6 5 5 4 4 4 3 2 2 2 2 1 1 1 1 0 0 0 0 0 0 -0 -0 -0 -1 -1 -1 -1 -1
7 11 11 10 10 10 10 11 11 10 10 10 9 7 7 8 8 8 8 7 7 7 7 7 6 5 5 5 4 3 3 2 2 1 1 1 1 1 1 1 1 1 0 0 -0 -0 -0 -1 -1 -1 -1 -2 -2 -2
10 11 11 11 10 10 9 9 8 9 11 11 9 9 9 9 9 9 8 8 8 7 7 6 6 5 5 4 3 2 2 1 1 0 -1 -1 -0 -0 -0 -0 -1 -0 -0 -0 -0 -0 -0 -1 -1 -1 -1 -2 -2 -2
12 12 12 11 10 10 11 10 11 11 11 8 8 10 10 10 11 10 9 9 8 7 7 6 5 5 4 4 3 2 1 1 0 -0 -1 -2 -2 -2 -2 -1 -1 -1 -1 -1 -1 -1 -1 -1 -2 -2 -2 -2 -3 -3
12 13 12 11 10 10 10 12 12 11 11 9 10 11 10 9 10 10 9 8 8 7 7 6 5 4 3 3 2 2 1 0 -0 -0 -1 -1 -2 -2 -2 -2 -2 -2 -2 -1 -1 -1 -2 -2 -2 -2 -3 -3 -3 -3
13 12 11 11 12 13 13 13 12 13 12 11 10 10 10 10 10 9 8 8 7 7 6 6 5 4 3 2 2 1 1 -0 -0 -1 -1 -2 -2 -3 -3 -3 -2 -2 -2 -2 -2 -2 -2 -3 -3 -3 -3 -3 -3 -3
13 12 11 11 12 12 13 12 12 12 11 10 10 9 9 9 9 8 8 7 7 6 6 5 4 3 3 2 1 1 0 -0 -1 -1 -1 -2 -2 -2 -3 -3 -3 -3 -3 -3 -3 -3 -3 -3 -3 -3 -4 -4 -4 -4
13 11 12 13 13 12 12 11 10 10 10 9 9 9 8 8 8 7 8 7 6 6 5 5 4 3 2 2 1 1 0 -0 -1 -1 -1 -2 -2 -2 -2 -2 -3 -3 -3 -3 -3 -3 -3 -4 -4 -4 -4 -4 -4 -4
13 12 12 11 11 11 11 10 10 9 8 9 8 8 7 8 8 7 7 7 6 5 5 4 3 3 2 1 1 0 -0 -0 -1 -1 -1 -1 -2 -2 -2 -2 -2 -3 -3 -3 -3 -4 -4 -4 -4 -4 -4 -4 -4 -4

GFSWCAN_850_temp_024.txt.gz
Temp
7 7 7 6 6 6 6 6 7 6 7 6 5 5 5 4 3 3 3 2 2 1 2 3 4 4 4 4 4 6 6 6 7 7 8 10 10 11 12 14 14 14 14 14 15 15 16 20 20 19 19 19 19 20
7 7 7 6 6 6 6 6 7 7 7 6 6 5 5 4 3 3 3 3 2 1 2 3 3 3 3 3 3 2 6 7 7 7 7 7 9 10 10 12 14 12 14 15 16 16 18 18 18 17 17 18 18 18
7 7 6 6 6 6 6 7 7 7 7 6 6 6 5 5 4 3 3 3 3 1 2 2 6 6 4 4 4 3 3 4 5 6 6 7 7 10 9 11 11 13 14 13 14 15 16 15 15 16 16 16 17 17
6 6 6 6 6 6 7 7 7 7 7 6 7 6 6 4 4 4 4 3 3 2 2 5 5 5 5 5 4 4 4 4 5 4 4 4 4 9 9 11 11 13 13 12 13 14 14 15 15 15 15 16 16 17
7 7 7 7 7 7 7 7 7 7 7 7 7 7 7 5 4 4 4 3 3 3 2 3 3 5 5 5 4 4 4 4 3 3 3 3 4 5 8 9 9 11 11 12 13 14 14 14 15 13 13 13 14 16
7 8 8 7 7 7 7 7 8 8 8 8 8 7 7 7 6 3 4 3 3 2 2 3 5 5 5 4 4 4 4 4 4 3 4 4 5 4 6 7 11 11 11 11 12 13 13 13 12 11 12 13 14 15
8 8 8 8 8 8 8 9 9 9 9 8 8 7 7 7 5 4 4 3 3 2 2 2 4 5 4 4 4 3 2 2 2 2 2 3 6 4 4 6 10 10 11 10 10 10 9 10 11 11 12 13 14 14
9 9 9 9 9 9 9 9 10 10 9 9 7 7 6 6 5 4 3 3 2 2 1 2 4 3 3 4 4 2 2 1 1 1 1 3 3 3 4 7 7 7 7 8 7 7 7 8 9 10 9 12 11 11
9 9 10 9 9 10 10 10 10 10 10 9 7 6 5 4 4 4 3 3 2 2 1 0 3 4 3 3 4 2 1 2 1 2 3 3 4 4 4 4 4 4 5 5 5 5 6 8 9 9 10 10 10 11
10 10 10 10 10 10 10 10 10 10 10 8 7 6 8 4 4 3 3 2 2 2 1 0 0 2 2 3 4 4 4 3 4 3 1 2 3 2 4 6 8 5 4 5 5 6 6 8 10 11 9 9 10 12
10 10 10 10 10 11 11 10 10 10 10 6 7 8 6 5 5 5 6 4 3 3 1 2 1 2 3 4 5 4 4 3 5 5 4 3 4 4 5 5 6 7 6 5 5 6 8 9 9 9 10 10 11 11
10 10 10 10 11 11 11 10 10 10 9 9 9 8 7 7 8 8 6 6 6 7 7 5 6 4 4 3 5 5 5 5 7 7 5 5 3 4 4 5 5 6 8 8 7 8 8 8 9 9 9 9 9 9
10 10 10 11 11 11 11 11 10 10 10 10 9 8 9 7 5 5 5 6 7 9 9 9 8 8 8 7 10 11 10 9 9 7 5 3 4 4 4 4 5 5 6 6 7 6 7 8 7 7 7 7 8 8
11 11 11 11 11 12 12 11 10 10 9 10 9 6 9 9 7 5 6 8 8 8 10 11 10 9 9 10 9 9 11 11 9 6 5 4 4 4 3 4 5 5 5 7 6 7 8 8 7 8 8 8 8 8
12 11 11 11 11 12 12 12 11 10 10 10 10 8 10 9 11 10 10 10 10 10 11 13 14 14 13 11 10 9 9 7 5 5 6 5 4 4 4 4 4 4 5 5 7 7 7 7 7 7 8 8 8 8
12 12 12 11 12 12 13 12 11 10 10 10 10 11 10 11 11 11 11 11 10 12 12 13 12 11 11 10 6 6 6 5 5 5 5 5 4 5 5 5 5 6 5 5 6 6 6 6 7 6 7 8 7 7
12 11 12 12 12 12 12 11 11 10 10 10 11 10 10 10 10 10 10 10 10 12 13 12 9 7 8 7 6 5 5 4 4 4 4 4 4 5 6 6 6 6 6 6 6 6 5 5 6 6 5 5 5 5
12 12 12 12 13 13 12 11 11 11 11 10 11 10 10 9 10 10 10 9 10 10 10 11 10 9 7 6 7 8 7 6 5 4 4 4 4 5 5 5 5 5 5 6 6 6 6 7 7 6 6 5 5 5
13 13 13 13 13 12 12 11 11 12 12 11 11 10 10 10 10 10 9 9 10 10 10 10 10 8 9 9 9 8 8 8 8 7 5 5 4 5 5 5 5 5 5 5 5 6 6 5 5 6 6 5 5 5
13 13 13 13 13 11 12 11 11 12 13 11 10 11 10 10 10 9 9 9 9 9 10 10 10 9 9 8 7 7 7 7 8 8 8 7 6 6 5 5 5 5 6 5 5 5 6 5 5 4 4 4 4 3
13 13 13 12 12 12 11 12 12 11 11 12 11 11 11 11 10 10 9 9 9 9 9 8 8 8 6 6 6 6 6 5 6 6 6 6 6 6 5 5 5 5 5 5 5 4 4 4 4 4 3 3 3 3
12 12 12 12 11 11 11 11 11 10 11 11 11 11 11 12 11 10 9 10 9 8 8 8 7 7 7 6 5 5 5 4 5 5 5 5 5 5 4 4 4 4 4 4 4 4 3 3 3 3 3 3 2 2
12 12 12 12 12 11 11 10 12 11 12 12 11 12 12 11 10 9 10 9 9 7 7 7 6 5 5 5 4 4 4 4 5 5 4 4 4 4 4 3 3 3 3 3 3 3 3 2 2 3 3 3 3 3
12 12 11 12 12 11 11 12 11 12 11 12 12 12 12 11 9 11 11 10 9 8 8 7 7 7 7 6 6 5 4 4 5 5 3 3 4 4 3 3 3 3 2 3 3 3 2 2 2 2 2 2 2 2
11 11 12 11 11 13 14 14 13 13 13 13 12 13 12 9 11 11 11 10 9 9 8 8 7 7 7 7 6 5 3 4 4 4 3 2 3 3 4 3 3 2 2 2 2 2 2 2 2 1 1 1 0 1
8 12 12 13 13 14 14 14 14 14 14 13 13 11 11 11 12 12 12 10 9 9 8 8 7 7 7 6 5 5 4 3 3 3 2 1 1 2 2 3 3 3 1 1 2 2 2 1 1 1 1 1 -0 0
12 14 13 12 12 12 13 13 13 13 14 14 14 13 13 12 12 13 11 9 9 8 7 7 6 6 6 5 4 3 2 2 1 1 1 0 0 0 0 1 1 0 0 1 1 1 1 1 1 1 1 1 0 -0
14 13 15 14 13 13 14 15 15 14 15 13 13 13 13 13 13 12 11 9 8 7 7 6 5 5 5 4 3 3 3 2 2 2 2 1 0 -0 -1 -0 -0 -1 -1 -0 -0 1 0 0 0 0 0 -0 -0 -0
14 14 13 14 14 14 14 15 16 15 14 14 14 15 14 12 11 10 8 8 7 6 5 5 5 4 4 3 2 2 2 2 2 2 2 2 1 0 -1 -1 -1 -0 -0 0 -1 -1 -2 -1 -1 -1 -1 -1 -1 -1
16 14 15 15 15 16 16 15 15 14 13 13 12 11 11 11 9 9 8 8 8 7 5 5 5 5 5 4 4 3 2 1 1 1 1 1 0 -0 -1 -1 -1 -0 -0 -0 -0 -1 -2 -2 -2 -2 -1 -2 -2 -2
14 14 14 15 16 16 14 13 11 11 10 11 11 11 12 10 8 8 8 8 7 6 5 5 5 5 4 4 4 3 3 2 0 -0 -0 -0 -0 -1 -1 -1 -1 -1 -1 -1 -1 -2 -2 -2 -2 -2 -2 -2 -2 -2
14 15 16 16 17 14 12 13 13 13 13 12 13 11 10 10 10 7 7 7 6 6 6 6 6 5 3 3 2 2 1 2 1 0 -0 -0 -0 -1 -1 -1 -1 -1 -2 -2 -2 -2 -2 -2 -3 -3 -2 -3 -3 -3
15 15 15 15 16 15 14 13 13 13 13 13 12 11 11 11 10 6 7 6 6 6 6 5 4 3 2 2 1 1 1 1 -0 -0 -1 -1 -1 -2 -2 -1 -1 -2 -2 -2 -3 -3 -3 -3 -3 -3 -3 -3 -3 -3

GFSWCAN_850_temp_027.txt.gz
Temp
7 7 7 7 7 7 6 6 6 6 5 6 6 5 5 5 3 3 3 3 2 2 2 3 5 5 6 6 6 8 8 10 11 9 10 11 14 13 14 17 17 16 16 17 18 18 19 24 24 22 20 20 20 21
7 7 7 7 7 7 6 6 7 6 6 6 6 5 5 5 4 4 3 3 3 2 2 4 4 4 5 5 5 5 7 8 8 9 8 9 12 13 14 14 17 15 17 18 18 19 21 21 20 21 20 19 19 19
7 7 7 7 7 7 7 7 7 7 7 7 6 6 6 5 4 4 4 4 3 2 2 2 6 6 6 6 6 4 6 6 7 7 8 10 9 13 11 14 15 15 16 17 17 18 18 18 19 18 18 18 18 18
7 7 8 7 7 8 8 7 7 8 8 7 7 7 7 4 4 4 4 4 3 2 2 5 7 7 7 6 6 6 6 5 5 7 6 8 7 11 11 12 13 15 16 16 16 17 17 17 17 17 17 17 17 17
8 8 8 8 8 8 8 8 9 9 8 8 8 8 7 7 6 4 4 4 3 3 3 4 5 7 7 7 6 6 5 5 5 5 6 7 9 9 11 12 12 14 14 14 15 16 16 16 16 16 16 16 16 16
8 9 9 9 9 9 9 9 9 9 8 8 8 8 8 7 6 4 4 4 3 3 2 4 6 5 5 6 5 5 5 5 5 4 5 5 6 6 6 9 12 12 13 13 14 14 14 15 15 15 16 16 15 15
9 9 9 9 9 9 9 10 10 9 9 9 8 8 7 6 5 5 5 4 3 2 2 3 4 4 4 4 4 3 3 3 2 2 2 2 3 3 4 6 10 10 9 10 10 10 11 13 12 14 14 14 14 14
9 9 10 9 10 9 10 10 10 10 9 9 8 7 7 6 5 4 4 4 3 2 2 3 4 4 3 4 4 2 2 1 1 0 1 2 2 2 4 5 5 4 5 6 9 9 10 11 11 11 11 12 13 13
10 10 10 10 10 10 10 10 10 10 9 8 7 7 6 5 5 4 3 3 2 2 1 1 3 4 3 3 4 2 1 2 1 2 1 1 3 4 3 2 2 3 3 3 7 8 8 9 10 9 10 11 12 11
10 10 10 10 10 11 11 10 10 10 9 9 8 6 7 6 5 4 4 3 3 2 2 2 1 2 2 3 4 4 3 4 5 4 1 2 2 2 2 5 7 6 3 4 6 6 5 6 7 8 9 11 12 12
10 11 10 10 11 11 11 10 11 10 9 9 11 10 7 7 6 6 9 8 8 7 4 4 3 4 3 4 5 4 5 4 6 7 6 4 4 4 4 5 6 6 6 5 5 6 6 6 7 9 10 12 11 10
11 11 11 11 11 11 11 11 11 9 10 10 9 9 8 9 10 12 9 10 10 11 11 10 11 6 5 4 5 7 9 9 9 11 7 5 4 4 4 5 5 5 5 5 6 6 7 8 8 8 8 8 8 9
11 11 11 11 11 11 11 11 11 10 10 10 9 9 10 10 9 7 6 7 8 11 12 12 14 12 10 7 10 13 13 12 13 9 5 5 6 6 5 5 5 5 5 6 6 5 5 6 7 7 6 6 7 7
12 12 11 12 12 12 12 12 10 11 11 13 13 8 12 11 12 10 11 12 13 13 14 13 14 15 14 13 14 10 13 12 9 6 5 7 6 7 6 6 6 6 6 6 6 6 6 6 7 6 6 6 7 6
12 12 12 12 12 12 12 12 11 12 12 13 13 11 13 14 14 14 14 14 14 14 15 15 16 16 15 13 11 11 10 7 6 6 7 7 7 7 7 7 7 7 7 7 6 6 5 4 4 4 5 6 6 6
12 12 13 13 13 13 12 12 12 12 13 13 14 14 14 15 15 14 14 13 13 15 15 15 15 13 14 12 8 7 7 6 5 7 8 8 7 7 7 7 6 7 7 8 8 7 7 6 5 5 5 5 5 5
13 11 12 13 13 13 12 13 13 12 13 13 14 13 13 13 13 13 13 13 13 14 16 15 12 11 13 11 8 6 5 5 8 7 7 6 6 7 7 7 7 7 7 7 7 8 8 8 7 6 6 6 6 5
13 13 13 13 13 13 13 13 13 13 14 14 14 14 13 13 12 12 12 12 13 13 13 13 13 11 10 9 9 10 9 7 7 8 7 7 7 6 7 7 7 7 7 7 7 7 7 8 8 8 8 7 7 7
13 13 13 13 13 12 14 13 13 15 14 14 14 14 13 13 12 12 12 12 12 12 13 13 10 9 10 9 10 10 10 9 10 9 8 7 7 7 7 7 7 7 7 7 7 8 7 7 7 7 7 7 7 6
13 13 13 13 13 13 14 14 13 15 15 14 14 14 13 13 13 12 12 12 12 12 12 13 12 11 11 10 9 9 9 8 9 9 10 9 8 8 7 7 7 7 8 7 8 6 8 8 7 6 6 6 6 5
13 12 13 13 12 13 14 15 15 14 14 14 14 14 14 14 14 13 13 12 12 12 12 11 11 10 8 8 8 7 8 7 7 8 7 8 7 7 7 7 7 7 7 7 7 7 6 7 6 6 6 5 5 5
11 12 12 12 13 13 14 14 14 14 14 14 15 14 14 14 14 13 12 13 12 11 10 10 9 9 9 8 7 6 6 6 7 7 7 6 7 7 7 6 6 6 6 6 6 6 5 5 5 6 5 5 5 4
12 12 12 13 14 13 13 13 14 14 15 15 15 15 15 14 13 12 13 12 12 10 10 9 8 8 7 7 7 7 6 6 7 7 7 6 7 7 6 6 6 6 6 5 5 6 5 4 5 5 5 5 5 5
12 11 13 14 14 13 14 15 15 15 15 15 15 15 15 14 13 14 14 13 12 11 10 9 9 9 9 8 9 8 6 6 7 7 7 5 6 6 6 6 6 5 5 5 5 5 5 4 4 4 4 4 4 4
12 13 13 12 14 16 16 17 16 16 16 16 15 16 15 13 15 14 14 14 12 11 11 10 10 10 9 9 9 8 6 6 6 6 6 5 5 5 6 6 6 5 4 4 5 5 4 4 4 4 4 3 2 3
8 14 14 16 16 16 17 16 17 17 17 16 16 15 14 15 14 14 15 13 12 11 10 10 9 9 9 9 8 7 6 5 5 5 4 4 4 4 4 5 5 4 3 3 4 4 4 4 4 3 4 3 2 3
12 17 16 15 16 16 17 17 17 17 16 16 17 16 15 14 14 15 13 12 11 10 8 7 7 7 8 8 7 6 5 4 4 3 3 3 3 3 3 3 3 2 2 3 3 3 3 3 3 3 3 2 2 2
17 16 17 17 17 17 17 17 17 17 17 17 16 15 14 14 14 14 13 11 10 8 8 7 6 7 7 6 6 6 5 5 5 4 5 4 3 3 2 2 2 1 1 1 1 2 2 2 2 1 1 1 1 0
17 17 17 17 17 17 17 17 17 16 17 17 17 17 16 15 13 13 11 10 8 8 7 6 7 7 6 6 6 5 5 5 5 4 4 5 4 3 2 2 2 2 2 1 0 0 -0 -0 -0 -0 0 1 -0 0
17 17 17 17 18 18 17 17 17 17 16 16 15 15 15 14 12 11 10 8 7 8 8 6 8 7 7 7 7 7 6 5 4 3 4 3 3 2 2 2 1 1 1 1 1 0 -0 -0 -0 -0 -0 0 -0 0
17 17 17 18 18 18 18 17 17 16 15 15 15 15 15 13 10 9 9 8 8 8 8 8 8 8 7 7 6 5 6 5 3 2 1 2 2 1 1 1 1 0 0 0 0 -0 -0 -0 -0 -1 -1 -1 -1 -1
17 17 18 18 18 18 17 17 17 17 17 16 16 15 14 13 11 9 7 8 9 9 8 8 8 7 6 5 5 4 3 4 3 3 2 2 1 1 1 1 0 0 -0 -0 -0 -1 -1 -1 -1 -1 -1 -1 -1 -2
18 18 18 18 18 18 18 17 16 16 16 16 15 14 14 13 11 9 7 7 8 8 8 7 6 5 4 4 3 3 3 2 2 1 1 -0 -1 -1 -1 -0 -0 -1 -1 -1 -1 -2 -2 -2 -2 -2 -2 -2 -2 -2

GFSWCAN_850_temp_030.txt.gz
Temp
8 8 7 7 7 7 7 7 7 7 6 6 7 6 5 5 3 3 4 3 3 2 2 3 4 5 5 7 7 8 9 8 8 7 9 8 10 14 15 16 15 17 16 16 18 19 18 21 23 22 20 20 20 21
8 8 7 7 7 7 8 8 7 7 7 7 7 7 6 5 3 4 4 4 4 3 3 4 4 4 4 5 6 6 7 8 9 8 8 9 11 13 12 13 17 16 17 17 18 19 21 20 21 20 20 20 20 19
8 8 8 8 8 8 8 8 8 8 8 9 8 8 7 4 4 4 4 4 4 3 3 3 4 6 5 6 7 6 7 7 8 7 9 10 10 13 11 14 11 13 16 16 17 18 18 19 19 19 19 19 19 18
8 8 8 8 8 9 9 9 9 9 9 9 8 8 6 4 4 4 4 4 4 3 2 5 6 6 6 6 6 7 6 6 7 7 8 8 8 11 12 12 13 14 15 15 15 17 18 18 18 18 17 17 18 18
8 9 9 9 9 9 9 9 9 9 9 9 9 8 8 8 7 5 5 4 4 3 3 4 5 6 5 6 6 7 7 7 7 6 7 7 8 9 11 12 12 14 14 14 14 15 15 16 16 17 17 17 17 17
9 9 9 9 10 10 10 9 9 10 9 9 9 8 8 7 6 5 5 4 4 3 3 4 4 4 4 5 6 5 4 4 4 4 4 4 6 4 6 9 12 12 12 10 10 9 11 13 14 15 15 16 17 17
9 10 10 10 10 10 10 10 10 10 9 9 8 8 7 6 5 6 6 4 4 3 2 3 3 4 4 4 4 4 3 3 3 2 1 2 3 3 3 5 8 8 7 7 8 9 10 10 12 13 14 14 14 14
10 10 10 10 10 10 10 10 10 10 10 9 8 8 7 6 5 5 5 4 3 2 2 3 4 4 3 4 4 3 2 2 1 1 0 1 2 2 3 4 3 3 3 3 4 6 7 9 10 12 13 13 13 13
10 10 10 11 10 10 11 10 10 10 10 9 8 8 7 6 6 5 5 4 3 3 3 2 4 6 4 4 4 3 2 3 1 2 1 1 2 3 1 1 5 6 5 5 4 4 6 8 9 11 12 12 13 12
11 11 11 11 10 11 11 10 10 10 10 9 9 7 8 7 6 6 5 5 4 3 3 4 3 6 4 4 4 5 3 5 5 5 1 2 2 4 5 5 5 6 6 5 5 6 6 8 9 10 11 12 11 11
11 11 11 10 11 11 11 11 10 10 10 10 9 11 9 8 6 7 10 11 12 11 8 9 6 8 5 6 6 5 6 5 7 9 8 4 4 5 5 5 5 5 5 5 7 7 7 7 8 8 9 9 10 11
11 12 11 11 11 11 11 11 10 10 11 11 11 10 9 9 12 13 11 13 12 12 13 13 12 9 9 5 5 7 10 9 10 11 7 5 5 6 6 5 5 4 5 5 5 6 6 6 7 8 8 8 8 8
12 12 11 11 12 12 12 11 11 11 11 10 11 12 12 13 10 11 7 9 13 13 15 15 13 11 11 9 11 13 14 13 13 9 5 5 6 7 7 6 6 5 4 4 5 5 5 5 5 6 6 5 6 6
12 12 12 12 12 12 12 12 12 12 12 14 14 7 14 14 15 15 16 14 15 15 16 15 15 14 16 15 15 12 14 12 9 6 6 7 7 7 7 7 7 6 5 5 4 5 5 5 5 5 5 5 7 5
13 13 13 13 13 13 12 12 12 13 14 14 15 10 15 16 17 16 16 15 15 16 16 14 15 16 16 14 14 12 11 8 8 7 8 8 7 7 7 7 7 7 7 6 6 5 5 4 4 4 4 5 5 4
13 13 13 13 13 13 13 13 13 14 14 15 16 16 16 16 16 15 15 15 15 16 17 16 15 14 13 13 11 8 7 7 8 8 9 8 8 7 7 8 7 7 7 8 7 7 6 5 5 4 4 4 4 4
13 12 13 13 14 14 13 14 14 14 15 16 16 16 15 15 15 15 14 14 14 15 16 16 13 13 13 12 10 9 7 8 9 9 10 8 7 7 8 8 8 8 7 7 8 8 8 7 7 6 5 5 5 5
12 13 13 14 14 14 15 15 15 16 16 16 16 16 15 14 14 14 14 14 14 14 15 14 13 11 10 10 10 11 11 11 10 10 9 8 8 8 8 8 8 8 8 8 8 8 7 8 8 8 7 7 6 6
14 14 14 14 14 14 15 15 15 17 17 16 16 16 16 15 14 14 14 14 14 14 14 14 13 12 11 11 11 11 11 10 10 10 10 9 8 9 8 8 8 8 8 8 7 8 8 7 7 7 7 7 6 6
14 14 13 14 13 13 16 16 15 16 17 16 15 16 15 16 15 15 14 14 14 14 14 14 14 12 12 11 10 10 9 8 9 10 10 9 9 9 9 8 8 8 9 8 8 8 8 8 8 7 7 6 6 5
13 13 13 13 13 14 15 16 16 15 16 15 15 16 16 16 16 15 14 14 14 13 13 12 12 11 10 9 9 8 8 7 7 8 9 8 8 9 9 8 8 8 8 8 8 8 7 7 7 7 7 6 6 5
12 13 13 13 14 15 15 16 15 15 15 15 16 16 16 16 16 14 14 15 14 13 12 11 10 9 10 9 8 8 7 7 7 9 8 8 8 8 8 8 8 7 7 7 7 7 6 6 5 6 6 6 6 5
13 13 13 14 15 14 14 15 16 16 16 16 16 16 16 16 15 14 15 15 14 13 12 10 9 9 9 9 9 8 8 7 8 8 8 8 8 8 8 8 8 7 7 7 7 7 6 5 6 6 6 6 6 6
12 12 14 16 16 14 16 17 17 17 17 17 17 16 16 15 15 14 16 15 14 13 12 11 11 11 11 9 10 10 9 8 8 8 8 7 7 7 7 8 8 7 6 6 6 6 6 6 5 5 5 4 4 5
12 14 13 13 15 17 18 18 18 18 17 18 17 16 16 16 15 16 16 15 14 13 11 9 9 9 9 10 10 9 8 8 7 7 7 6 6 6 7 7 6 6 5 5 6 6 6 5 5 5 4 4 4 4
7 15 14 18 18 18 18 18 18 18 18 18 18 15 15 16 15 14 15 14 13 11 10 9 9 7 8 9 9 9 8 7 6 6 5 5 5 5 5 6 6 5 4 5 5 5 5 5 4 4 4 3 3 3
10 18 17 17 17 18 18 18 18 15 11 15 18 17 15 10 14 15 14 13 12 10 9 9 9 7 8 9 8 8 7 7 6 6 5 5 5 4 4 4 4 3 3 4 4 4 4 4 4 4 3 3 2 2
17 18 18 18 17 18 18 13 12 16 14 14 18 16 14 14 14 14 13 12 10 9 9 9 8 7 9 8 7 7 7 7 7 6 6 5 5 4 4 4 3 3 2 2 2 2 2 2 2 2 2 2 2 1
14 13 14 15 17 18 17 14 16 17 17 17 18 18 17 13 12 12 12 12 11 10 9 9 9 9 9 9 8 8 7 7 6 6 6 6 5 4 4 3 3 3 2 1 1 1 1 1 1 1 1 1 1 1
16 15 16 19 19 19 18 18 16 18 18 17 17 17 13 13 11 11 11 11 11 9 9 9 9 9 9 9 9 8 8 7 6 5 5 5 4 4 3 2 2 2 2 2 1 0 0 1 0 0 1 1 1 1
18 19 19 19 19 19 18 19 19 19 18 16 17 16 14 10 9 10 11 10 10 10 10 10 10 9 8 8 7 6 6 6 4 3 3 4 3 3 2 2 2 1 1 1 1 1 1 1 0 0 -0 -0 -0 -0
19 19 19 20 20 19 19 19 19 18 18 18 17 17 14 13 11 11 9 10 11 11 10 10 9 8 6 6 6 5 4 4 4 3 2 2 2 1 1 1 1 1 1 0 -0 -0 -0 -0 -0 -0 -0 -1 -1 -1
20 20 19 19 19 19 20 19 18 18 17 15 13 13 15 14 12 10 9 9 9 9 9 8 7 7 5 5 5 5 4 3 2 2 1 1 -0 -0 -0 0 0 0 -0 -0 -1 -1 -1 -1 -1 -1 -1 -1 -1 -1

GFSWCAN_850_temp_033.txt.gz
Temp
8 8 8 8 8 8 8 8 8 8 8 7 7 7 6 4 3 3 4 4 3 3 3 3 3 3 3 4 5 6 6 7 7 6 6 5 6 10 10 11 8 13 13 14 16 16 13 16 19 16 17 18 18 18
8 8 8 8 8 8 8 8 9 9 8 8 8 8 7 4 4 4 4 4 4 3 3 4 3 4 4 4 3 5 5 6 7 6 6 7 8 9 10 8 10 10 10 9 13 13 15 13 15 18 18 18 18 18
8 8 8 8 8 9 9 9 9 9 9 9 8 8 6 4 4 4 4 4 4 3 3 3 4 4 5 6 5 5 7 6 6 7 8 7 8 9 9 9 10 12 12 11 12 14 14 15 16 16 17 17 17 17
8 9 9 9 9 9 9 10 10 9 9 9 8 8 8 8 5 4 5 4 4 3 3 4 5 5 5 6 5 6 6 7 7 7 7 7 7 8 7 8 9 11 11 12 12 13 13 13 12 12 14 16 17 17
9 9 9 9 9 10 10 10 10 9 9 9 8 8 7 7 6 5 5 4 4 4 3 3 4 4 4 5 5 6 6 6 6 5 5 5 6 6 7 7 9 11 9 8 8 9 9 9 10 11 12 14 15 15
9 9 10 10 10 10 10 10 10 9 9 9 8 8 7 6 6 5 5 4 4 3 3 4 4 5 5 5 5 4 4 4 4 3 4 4 4 4 4 5 9 8 5 5 5 6 7 7 8 10 12 13 14 14
10 10 10 10 10 10 11 10 10 10 10 9 9 8 7 7 6 6 6 6 4 3 3 3 5 5 5 4 4 3 3 3 2 2 1 1 2 3 3 4 5 4 3 3 6 4 4 6 8 10 10 12 13 14
10 10 11 11 10 11 11 10 10 10 10 9 9 8 8 7 6 6 6 6 5 3 3 5 6 6 5 4 4 3 2 2 2 1 1 1 1 1 2 3 3 5 6 7 6 6 5 4 5 8 10 11 12 13
10 11 11 11 11 11 11 10 10 10 10 9 8 8 8 7 7 7 6 6 5 4 4 4 6 7 5 4 4 3 3 3 2 2 1 1 1 3 3 3 4 4 5 5 5 5 5 4 5 7 8 10 11 12
11 11 11 11 11 11 11 11 10 10 9 9 9 8 8 9 8 7 6 5 5 4 4 5 5 7 6 5 5 4 3 5 5 5 1 2 2 5 5 4 4 4 5 5 6 5 4 5 6 7 9 10 11 11
11 11 12 12 11 11 11 11 11 10 10 10 9 11 10 10 8 8 9 10 11 9 7 6 6 8 7 7 7 5 6 5 6 6 6 4 3 5 5 5 4 4 3 4 5 5 6 6 7 8 9 9 9 9
12 12 12 12 12 11 11 11 11 11 10 10 11 11 11 10 11 13 10 12 13 11 14 11 10 9 7 6 6 6 7 6 9 8 5 4 5 6 6 5 4 4 4 4 3 4 4 4 6 8 8 7 7 7
12 12 13 12 12 12 12 12 12 11 11 11 11 12 13 13 11 11 6 8 12 15 15 14 12 12 9 8 8 10 12 11 12 7 5 5 6 7 7 7 6 5 4 4 4 4 4 4 4 5 5 5 5 5
13 13 13 13 12 13 12 12 13 12 12 11 14 8 13 13 15 15 15 14 15 15 15 15 14 15 14 13 13 12 12 11 8 5 5 6 7 7 7 7 7 6 5 5 4 4 3 3 3 3 3 3 4 3
13 14 13 13 13 13 13 13 13 13 13 15 15 8 15 16 16 16 15 15 15 15 16 15 15 15 14 13 12 10 10 7 7 6 6 8 8 7 7 7 7 7 7 6 5 5 4 4 3 2 2 2 2 3
14 14 13 14 14 14 13 13 14 14 14 16 16 16 15 15 15 15 15 14 14 15 16 15 14 13 12 12 11 8 6 6 8 8 8 8 8 7 8 8 8 8 8 7 6 6 5 4 4 4 3 3 3 3
13 12 13 14 14 14 14 14 14 15 15 16 17 16 15 15 14 14 14 14 14 14 14 14 12 11 12 11 10 10 9 9 10 10 8 8 8 8 8 8 8 8 8 8 8 7 6 5 5 4 4 4 4 4
13 13 13 14 14 14 14 15 15 16 17 17 17 16 15 15 14 14 14 14 14 14 13 13 13 12 11 10 10 11 10 9 10 10 9 9 8 8 8 8 8 8 8 8 8 8 7 7 6 6 6 5 5 5
14 14 14 14 14 14 14 16 15 16 17 16 16 16 15 15 15 15 14 14 14 14 14 14 13 11 11 11 10 10 9 8 8 9 9 9 9 9 8 8 8 8 8 8 8 7 7 7 7 7 6 6 6 5
13 14 13 14 14 14 15 16 16 16 17 16 16 16 16 16 15 15 15 14 14 13 13 12 12 11 10 9 9 9 8 8 7 8 9 9 8 8 8 8 8 8 8 8 8 7 7 7 6 7 6 6 5 5
13 13 13 14 14 15 15 16 16 16 16 15 15 16 16 16 16 15 15 14 14 13 13 11 11 10 10 9 8 8 8 8 7 8 8 8 8 8 9 8 8 8 8 7 7 6 6 6 6 6 6 5 6 5
12 13 14 13 14 15 15 16 15 16 16 16 15 16 16 16 16 15 14 15 13 13 12 10 10 10 10 9 9 8 8 8 8 8 9 8 8 8 8 8 8 7 7 7 7 6 6 6 6 6 6 5 5 5
13 13 13 14 15 15 15 15 16 17 16 17 16 17 16 16 16 15 15 15 13 12 11 11 11 10 10 10 10 8 8 8 8 8 8 8 7 7 7 8 8 7 7 6 6 6 6 6 6 5 5 5 5 5
12 12 14 15 15 13 16 16 16 17 17 17 16 16 16 15 15 15 14 13 13 12 12 11 10 10 10 10 10 9 8 8 8 7 7 6 6 6 7 7 6 6 6 6 6 6 6 5 5 5 4 4 4 4
12 13 13 13 15 16 17 18 18 9 8 9 12 16 16 13 7 10 14 14 13 12 11 10 9 9 9 9 9 8 7 7 6 6 6 6 6 6 6 6 5 4 5 5 5 5 5 5 5 4 4 4 3 3
5 15 14 17 18 18 18 17 14 11 11 11 15 17 14 9 9 10 12 12 13 11 10 10 9 9 9 9 8 8 8 7 6 6 6 5 5 5 5 5 4 3 3 4 4 4 4 4 4 4 3 3 3 3
9 16 16 17 17 17 11 13 12 13 14 12 15 16 15 14 10 6 9 11 11 10 10 10 9 8 8 9 8 8 8 7 7 6 6 5 5 4 4 4 3 3 3 3 3 3 3 3 3 3 2 2 2 2
16 16 16 16 16 16 13 12 13 11 13 15 16 17 16 14 10 9 10 11 11 10 10 9 9 8 9 9 8 8 8 7 7 7 6 5 4 4 4 3 3 3 2 2 2 2 2 2 2 2 2 2 2 2
16 16 14 15 15 17 13 15 15 15 15 17 17 17 14 11 11 11 11 11 11 10 9 9 9 9 9 10 8 8 8 8 7 6 6 5 5 4 3 3 3 2 1 1 1 1 1 1 1 1 1 1 1 1
16 16 15 17 17 16 17 18 18 18 18 17 14 11 11 10 11 11 11 11 11 10 10 10 10 9 9 8 8 7 6 6 5 5 5 4 3 3 3 2 2 2 2 1 1 -0 0 -0 0 0 1 1 0 0
19 17 16 18 17 19 20 20 18 19 16 14 13 11 10 10 10 11 11 11 11 11 10 10 9 8 7 7 6 6 5 4 4 4 3 3 3 2 2 2 1 1 1 1 1 0 0 0 0 -0 -0 0 -0 -0
20 20 19 20 20 20 20 19 19 19 17 14 11 11 10 9 11 10 10 10 10 10 9 8 7 6 6 6 6 5 4 4 3 2 2 2 1 1 1 1 1 0 0 0 -0 -0 -1 -0 -0 -1 -1 -1 -0 -0
20 20 20 20 19 19 20 20 19 19 16 15 12 10 11 12 11 10 10 9 9 9 8 8 7 6 5 5 5 4 4 3 2 2 1 1 -0 -0 -0 -0 -0 -0 -1 -1 -1 -1 -1 -1 -1 -1 -1 -1 -1 -1

GFSWCAN_850_temp_036.txt.gz
Temp
8 9 9 8 8 8 8 8 8 8 8 8 8 7 6 4 3 3 4 4 4 3 3 3 3 3 3 3 4 4 5 5 4 5 5 4 5 6 6 6 6 7 8 8 11 10 11 11 12 12 13 15 15 15
8 9 9 9 9 9 8 9 9 9 8 8 8 7 5 4 4 4 4 4 4 3 4 4 4 4 4 4 3 4 4 4 6 3 4 4 5 6 7 7 8 7 6 7 8 9 9 9 8 10 11 13 16 17
9 9 9 9 9 9 9 9 9 9 9 9 8 7 5 4 4 4 4 4 4 3 4 4 4 4 4 5 4 4 5 5 6 6 5 5 6 6 6 7 8 8 10 8 9 9 9 9 9 10 10 11 13 15
9 9 9 9 9 10 10 9 9 9 9 9 8 8 7 7 6 4 5 4 4 3 3 4 4 4 4 5 5 5 5 6 6 6 5 3 3 5 5 5 6 7 7 6 8 7 9 9 9 9 10 11 12 14
9 10 10 10 10 10 10 10 10 10 9 9 9 8 7 7 5 5 5 4 4 4 3 4 5 4 4 5 5 5 6 6 5 4 4 4 4 4 3 3 5 6 5 4 5 5 4 5 7 8 9 10 11 12
10 10 10 10 11 10 10 10 10 10 10 9 8 8 7 6 5 5 5 4 5 4 3 3 5 5 5 5 5 4 4 3 3 3 3 3 3 3 3 2 6 4 3 3 4 4 4 5 6 7 8 10 11 12
10 10 10 11 11 11 11 10 10 10 10 9 8 8 7 7 7 6 6 6 5 4 3 4 6 6 5 5 5 4 4 2 2 1 1 1 1 2 3 3 3 4 4 5 6 6 5 5 5 9 9 10 11 12
10 11 11 11 11 11 11 10 10 10 10 9 8 8 8 8 8 7 7 6 5 4 4 4 5 6 6 5 5 4 4 3 2 1 1 1 1 0 2 3 3 4 4 5 6 7 5 4 5 6 7 9 9 9
11 11 11 11 11 11 11 11 10 10 10 9 8 8 8 8 8 7 7 7 6 5 4 5 5 6 6 5 4 4 4 4 2 2 2 1 1 3 4 4 4 3 3 4 5 6 5 5 5 4 5 7 8 10
11 11 12 11 11 11 11 11 11 10 10 10 9 8 9 8 8 8 7 6 5 5 5 5 6 5 6 5 5 4 4 5 4 4 2 2 2 4 5 4 4 3 3 3 4 4 5 5 4 4 6 7 8 9
12 12 12 12 12 11 11 11 11 11 10 10 10 9 10 9 8 8 7 7 7 6 6 8 7 6 6 6 6 6 5 5 5 3 3 3 4 5 6 5 4 4 3 3 3 3 3 5 6 6 6 7 8 8
12 12 12 13 12 12 12 12 11 11 11 10 10 10 9 9 9 9 6 9 9 9 10 10 10 7 6 6 6 5 6 4 5 4 5 4 4 7 7 7 6 4 4 3 4 3 3 3 4 4 5 5 6 6
12 13 13 13 12 12 12 12 12 12 11 11 11 11 11 12 8 9 6 6 8 13 14 13 10 10 7 7 6 6 8 7 7 4 4 4 7 7 7 7 7 5 5 5 4 4 4 3 3 3 3 3 3 3
13 13 13 13 13 13 13 13 13 12 12 12 11 8 10 10 11 10 9 9 14 14 14 13 13 12 11 7 8 9 8 6 5 5 5 5 7 7 7 8 7 6 5 5 4 4 4 4 2 2 2 2 2 2
13 13 14 14 14 13 13 13 13 13 13 13 14 10 11 14 14 14 14 14 14 14 14 13 13 13 8 9 7 7 7 3 3 4 4 7 7 7 8 8 8 7 6 5 5 4 3 3 3 2 2 1 1 1
13 14 14 14 14 14 14 14 14 14 14 14 15 14 14 13 13 14 14 14 14 14 14 14 9 8 10 7 8 6 5 4 5 5 8 8 8 7 8 8 8 8 7 6 6 5 4 4 3 3 3 2 2 1
13 13 14 14 14 14 14 14 14 14 14 15 15 15 15 14 14 14 14 14 14 13 8 10 9 10 8 8 8 5 5 4 8 8 8 8 8 8 8 8 8 8 8 7 7 6 5 4 4 4 3 3 3 4
13 13 13 14 14 14 14 14 15 15 15 16 15 15 15 14 14 14 14 14 14 14 13 11 12 9 8 9 6 6 8 8 9 8 8 8 8 8 8 8 8 8 8 7 7 7 6 5 5 5 5 4 4 4
14 14 14 14 14 14 14 15 15 15 16 16 16 15 15 15 14 14 14 14 14 14 13 12 8 7 6 8 8 8 8 8 8 8 8 8 8 8 8 8 8 8 7 7 7 6 6 6 6 6 6 5 5 4
14 13 13 13 14 14 14 15 15 15 15 16 16 15 15 15 15 15 14 14 14 13 12 8 8 9 9 9 9 8 8 8 7 8 8 8 8 8 8 8 8 8 7 7 6 6 6 6 6 6 6 5 5 5
14 13 14 13 14 14 14 15 16 16 16 15 15 15 15 15 15 14 14 13 13 12 10 11 10 10 10 9 9 9 8 8 8 8 8 8 8 8 8 8 8 7 7 6 6 6 6 6 6 5 5 5 5 5
13 13 13 13 14 14 14 15 15 15 15 15 15 15 14 15 14 13 14 13 12 12 12 11 11 10 10 9 9 9 8 8 8 8 8 7 7 7 7 7 7 7 7 6 6 6 6 5 5 5 5 5 4 4
13 13 13 14 14 15 15 15 15 15 13 15 15 11 13 13 14 14 13 13 12 12 12 11 11 10 10 10 9 8 8 7 7 7 7 7 6 6 6 6 6 6 6 6 6 5 5 5 5 5 4 4 4 3
12 12 13 14 14 14 16 15 15 13 13 12 11 12 12 11 10 10 9 11 12 11 11 10 10 10 9 9 8 8 7 7 7 6 6 6 6 5 5 5 5 5 5 5 5 5 5 4 4 4 4 3 3 2
12 13 13 13 14 15 14 15 9 9 9 9 10 10 10 11 7 7 5 8 10 10 10 9 9 9 9 8 8 8 7 7 7 6 6 5 5 5 4 4 4 5 4 4 4 4 4 4 4 3 3 3 2 2
5 14 14 15 16 14 13 13 12 11 9 10 10 13 10 8 8 7 6 9 9 9 10 10 9 9 8 8 8 8 7 7 7 6 5 5 5 5 4 4 4 3 3 3 3 3 3 3 3 3 2 2 2 2
7 13 15 16 16 15 13 12 12 11 11 11 11 13 10 10 9 8 10 10 10 10 10 10 9 9 8 8 8 8 7 7 7 6 5 5 4 4 4 4 3 3 3 3 3 3 2 2 2 2 2 2 2 1
14 15 14 15 15 16 12 11 11 11 10 11 9 8 10 10 9 11 11 10 10 10 9 9 9 9 9 8 7 7 7 7 6 5 5 4 4 3 3 3 2 2 2 2 2 2 2 2 2 1 1 1 1 1
15 16 15 14 15 14 13 12 13 13 13 12 8 8 9 11 11 11 10 10 10 10 10 9 9 9 8 8 7 7 7 6 6 5 4 3 2 3 3 2 2 2 1 2 1 1 1 1 1 1 1 1 0 0
16 17 16 16 15 14 16 16 16 15 14 13 12 9 10 10 10 11 11 10 10 10 9 8 8 8 7 6 5 5 5 5 5 4 4 3 2 2 2 2 2 1 1 1 1 1 0 0 0 0 0 0 0 0
18 17 16 16 17 18 18 18 16 14 13 11 11 11 10 10 10 10 10 10 10 9 9 8 7 7 7 6 5 4 4 3 3 3 3 2 2 2 1 1 1 1 1 -1 0 0 0 -0 -0 -0 -0 -0 -0 -0
18 18 17 16 19 20 20 19 15 12 10 10 10 9 9 10 10 10 10 10 9 8 8 7 7 6 6 5 5 4 3 3 3 2 1 1 1 0 0 0 0 -0 -0 -0 -0 -0 -0 -1 -0 -0 -1 -1 -1 -1
19 19 19 19 19 19 19 19 17 11 11 11 10 10 10 10 10 10 9 9 8 8 7 6 6 5 5 4 4 3 3 3 2 1 0 0 -0 -0 -0 -0 -1 -1 -1 -1 -1 -1 -1 -1 -1 -1 -1 -1 -1 -1

GFSWCAN_850_temp_042.txt.gz
Temp
10 9 9 9 9 9 9 9 9 9 9 8 8 6 4 3 4 4 4 4 3 4 4 4 3 3 3 3 2 4 3 4 3 4 4 3 4 4 5 4 5 6 6 8 8 11 11 8 9 9 9 9 9 9
10 10 9 9 10 10 9 9 9 9 9 9 8 7 4 4 4 4 4 4 4 3 4 5 4 4 4 4 4 2 3 3 3 3 3 3 4 4 4 6 5 5 5 5 5 7 6 7 6 6 7 8 8 8
10 10 10 10 10 10 10 10 9 9 10 9 9 8 6 6 6 5 4 4 4 3 4 5 4 4 4 4 4 3 4 4 4 3 3 3 4 3 5 5 5 4 4 5 5 6 6 7 6 6 6 6 9 9
10 10 10 10 10 10 10 10 10 10 10 9 9 8 8 6 6 6 6 5 3 4 3 6 5 5 4 4 4 4 4 4 5 4 3 3 4 3 4 4 4 4 4 3 5 6 6 7 7 6 7 7 9 11
10 10 10 10 11 10 10 10 10 10 9 9 9 8 7 6 6 5 5 5 5 5 4 7 7 7 6 5 5 4 4 4 4 4 2 3 3 2 3 3 4 4 4 4 5 5 4 5 6 6 7 7 8 9
10 10 10 11 11 10 10 10 10 10 9 9 8 8 8 7 6 5 6 6 6 5 5 3 7 7 7 7 7 6 5 5 3 2 2 2 2 2 3 4 4 3 4 4 4 4 5 6 6 6 6 7 7 8
10 11 11 11 11 11 10 10 10 10 10 9 8 8 8 7 7 7 7 7 6 6 5 6 5 7 6 6 7 6 6 5 3 2 2 1 2 1 2 3 4 3 3 3 3 4 4 5 4 5 5 7 7 7
11 11 11 11 12 11 11 10 10 10 9 9 8 8 8 8 8 7 7 6 6 5 5 5 6 6 5 5 4 5 4 4 3 2 3 2 2 1 3 4 4 3 3 3 3 3 3 5 5 5 5 6 6 6
11 11 11 11 12 11 11 11 11 10 10 9 9 8 8 8 7 7 6 5 5 5 5 4 4 7 5 5 4 4 4 3 3 3 2 2 2 3 4 3 4 3 3 3 3 3 4 4 4 4 4 5 4 5
11 11 11 11 12 12 11 11 11 11 10 10 9 8 8 8 8 6 6 5 5 4 5 3 5 5 6 6 6 5 5 5 4 3 3 1 1 5 5 5 4 4 4 3 3 2 3 3 3 3 4 5 5 5
11 12 12 12 12 11 11 11 11 11 11 10 9 9 9 8 7 6 6 5 6 5 5 5 5 5 6 6 6 6 6 5 3 4 4 1 2 4 5 5 4 4 4 4 3 2 2 2 2 2 2 3 4 4
12 12 12 12 12 11 11 11 11 12 11 10 9 9 8 8 7 6 5 7 6 8 9 7 8 6 6 7 6 6 7 2 3 3 1 3 4 7 6 5 5 4 4 4 4 3 2 2 2 2 2 2 3 3
12 12 12 12 12 12 12 12 12 12 11 10 10 9 9 9 7 9 5 5 7 11 11 9 7 7 6 6 6 5 6 4 3 4 3 3 6 7 7 6 5 4 4 4 3 3 2 2 1 2 2 2 1 2
12 12 12 13 13 12 12 12 13 12 12 11 10 6 8 8 9 7 7 7 12 11 11 9 7 7 6 6 4 7 4 4 4 -1 1 3 7 7 7 6 6 6 5 5 4 4 3 3 2 2 2 2 1 1
12 13 13 13 12 13 13 13 13 13 12 11 10 8 9 12 12 13 12 11 12 11 10 9 8 8 5 6 3 4 6 3 4 2 2 7 7 7 7 7 7 7 6 5 5 4 4 4 3 3 2 2 2 2
12 13 13 12 13 13 13 14 13 13 12 12 11 11 12 11 12 13 13 13 13 12 11 10 7 7 6 5 7 6 4 1 3 3 7 7 7 7 7 7 7 7 7 6 6 5 5 4 4 4 3 2 1 2
13 12 12 13 13 14 13 13 13 13 13 13 13 13 13 13 13 14 13 13 13 12 7 7 9 8 5 6 6 3 4 4 7 7 7 7 7 7 7 7 7 7 7 6 6 6 6 5 5 4 4 4 3 2
13 13 13 13 13 14 14 13 13 13 13 14 13 15 14 14 14 14 14 13 13 12 11 10 9 8 7 7 5 4 7 7 7 7 8 8 8 8 7 7 7 7 7 6 6 6 6 6 5 5 5 4 4 3
13 13 13 13 13 14 14 13 13 14 14 14 15 15 14 14 14 14 13 13 13 12 11 10 7 6 6 6 7 8 8 7 7 7 8 7 7 7 8 7 7 7 6 6 6 6 6 5 5 5 5 4 4 4
13 13 13 13 13 13 13 13 13 14 14 15 14 14 14 13 12 12 13 12 12 11 11 8 8 9 9 9 9 8 8 8 7 7 8 8 8 7 7 7 7 7 6 6 6 6 6 5 5 5 5 4 4 4
13 13 13 13 13 13 13 14 14 14 15 14 14 14 12 11 12 12 11 10 11 10 10 10 9 9 8 8 9 8 8 7 7 7 8 7 7 7 7 7 7 6 6 6 6 5 5 5 5 5 4 4 4 4
13 13 13 13 12 12 13 14 14 14 14 14 13 12 11 10 10 9 9 10 9 9 10 10 10 9 9 9 8 8 8 8 7 7 7 6 6 6 6 6 6 6 6 5 5 5 5 5 5 4 3 3 3 3
13 13 12 12 12 13 14 13 14 14 12 12 12 10 9 9 9 10 9 9 9 9 9 10 9 9 9 9 8 8 7 7 7 7 6 6 5 5 5 5 5 5 5 5 5 5 5 4 4 4 3 3 3 3
12 12 12 12 12 12 13 14 13 12 11 10 8 10 8 9 10 8 7 8 9 9 9 9 9 9 9 8 8 8 8 7 7 7 6 5 5 5 5 4 4 4 5 4 5 4 4 3 4 3 3 3 2 2
12 12 12 12 12 12 12 12 11 10 9 8 9 8 8 8 7 7 6 8 9 9 9 9 9 9 8 8 8 8 8 7 7 7 6 5 5 4 4 4 4 4 3 3 3 4 4 3 3 2 2 2 2 2
5 12 12 13 12 11 11 12 10 10 8 10 9 9 8 7 8 8 7 9 9 10 9 9 9 8 8 8 8 7 7 5 5 6 6 5 4 4 3 2 2 2 2 3 3 3 3 2 2 1 1 0 1 1
6 11 13 13 13 13 11 10 10 10 10 10 8 8 8 9 9 9 10 10 10 9 9 9 8 8 8 8 7 6 6 6 6 6 5 4 3 2 3 2 2 2 2 2 2 2 2 2 1 1 1 1 0 0
12 12 11 13 13 13 12 9 9 9 9 10 9 9 10 10 9 10 10 10 10 9 9 9 8 8 7 7 6 6 6 6 5 5 4 3 3 2 2 2 1 1 1 1 1 1 2 1 1 1 1 1 0 0
12 13 13 13 13 12 12 11 11 12 12 11 9 8 10 10 9 10 10 10 10 9 9 8 7 7 7 6 6 5 5 4 4 4 4 3 2 1 0 0 0 -0 0 0 0 1 1 1 1 0 -0 -0 -0 -0
14 14 14 13 12 11 15 14 13 12 12 11 11 10 10 9 10 10 10 9 9 9 8 7 7 6 6 5 5 4 4 4 3 3 3 2 1 1 1 0 -0 -0 -0 0 -0 0 0 0 0 0 -0 -0 -0 -0
15 14 14 14 14 14 14 13 12 11 11 10 10 10 10 9 9 9 9 9 9 8 8 7 6 5 4 4 4 3 3 2 2 2 1 1 1 1 1 0 0 -0 -0 -0 -0 -0 -0 -0 -0 -0 -0 -1 -1 -1
15 15 14 12 13 12 11 11 11 11 10 10 9 10 9 9 9 8 8 8 8 8 7 6 6 5 4 3 3 2 1 1 0 -0 -0 -0 -0 -0 -0 -0 -0 -0 -0 -0 -0 -1 -1 -1 -1 -1 -1 -1 -1 -1
16 14 14 13 10 11 12 13 11 10 10 10 10 9 9 10 9 8 8 8 7 7 6 6 5 4 3 2 2 1 0 -0 -1 -1 -1 -1 -1 -1 -1 -1 -1 -1 -1 -1 -1 -1 -1 -1 -1 -1 -1 -1 -2 -2

GFSWCAN_850_temp_045.txt.gz
Temp
10 10 9 9 10 10 10 9 9 9 9 9 8 7 5 4 4 5 4 4 4 3 4 4 3 3 3 3 3 3 5 4 3 4 5 5 5 5 5 4 5 5 5 5 5 6 6 6 10 12 10 9 9 9
10 10 10 10 10 10 10 10 10 10 10 9 9 9 6 5 5 5 4 5 4 3 4 4 4 3 4 4 4 3 4 3 3 3 4 4 4 4 5 6 4 6 4 5 5 5 3 6 7 8 7 8 7 8
10 10 10 10 10 10 10 10 10 10 9 9 9 9 8 6 7 6 5 5 4 4 5 5 5 4 4 4 4 3 4 3 4 3 3 3 4 3 5 5 4 4 4 4 4 5 5 7 7 7 6 6 7 7
10 10 10 10 11 10 10 10 10 10 9 9 9 9 8 7 7 7 6 5 5 5 5 8 7 5 4 5 4 4 4 3 3 4 4 4 4 3 4 3 4 4 4 3 5 5 5 6 6 5 6 6 8 9
10 10 10 11 11 11 11 10 10 10 9 9 9 8 8 7 7 7 6 6 5 5 7 8 8 7 6 5 5 5 5 4 4 5 5 4 3 2 3 4 3 4 4 4 5 4 4 5 5 5 5 5 6 7
10 10 11 11 11 11 11 10 10 10 9 9 9 8 7 7 6 6 5 7 6 6 6 8 8 7 6 6 6 6 6 5 4 3 3 3 2 2 4 4 4 4 3 3 4 3 4 4 5 5 5 5 6 6
10 11 11 11 11 11 11 11 10 10 9 9 8 8 7 7 6 6 6 7 6 6 5 7 8 6 6 6 6 6 6 5 4 3 3 3 3 2 3 4 4 4 4 3 3 3 4 5 5 4 5 6 6 6
10 11 11 11 11 11 11 11 10 10 9 9 8 8 8 7 7 7 6 6 5 5 5 7 9 6 6 5 5 5 4 4 4 3 3 3 3 3 4 5 4 4 4 3 3 3 3 4 4 4 5 5 5 5
11 11 11 11 12 12 11 11 10 10 10 9 9 8 8 8 7 6 5 5 4 5 5 4 6 8 5 5 5 4 4 5 4 5 4 4 3 4 5 4 4 3 3 3 3 2 2 2 2 3 4 4 4 5
11 11 11 12 12 12 11 11 11 11 10 10 9 8 8 8 7 5 5 5 5 5 4 4 4 7 6 5 5 5 5 5 5 5 3 2 5 5 4 4 4 4 3 2 2 2 2 2 2 2 2 3 3 4
11 11 12 12 12 12 11 11 11 11 11 10 9 9 9 8 6 6 6 6 6 7 4 4 5 6 6 8 7 6 6 5 4 5 6 4 5 6 5 5 5 4 3 2 2 2 2 2 1 1 1 1 2 3
11 11 12 12 12 12 12 12 11 11 11 10 9 9 8 7 7 8 9 9 9 11 8 8 7 6 6 6 7 6 7 5 6 5 6 6 7 6 6 6 5 4 4 3 3 2 2 2 1 1 1 1 1 2
11 12 12 12 12 12 12 12 12 12 11 10 9 9 9 9 9 11 7 10 12 12 10 8 9 6 6 6 6 7 8 8 6 7 5 6 7 7 6 6 6 5 4 4 4 3 3 2 2 2 1 1 1 1
11 12 13 13 13 12 12 12 12 12 11 11 10 7 11 12 12 13 13 12 11 11 10 8 7 7 6 8 8 9 7 8 7 6 7 8 7 7 7 6 6 6 6 5 4 4 4 4 3 2 2 2 1 0
12 12 13 13 12 12 12 12 12 12 12 11 10 10 12 12 12 12 12 11 12 11 9 8 8 8 10 9 9 8 8 6 7 8 9 7 7 7 7 7 6 6 6 5 5 5 4 4 4 4 3 2 2 1
12 13 12 12 12 13 13 13 13 12 12 11 11 12 11 11 14 12 13 12 12 11 10 9 10 10 9 9 10 9 8 7 8 7 7 7 7 7 7 7 7 7 7 6 6 5 5 5 4 4 4 4 3 2
12 12 12 13 13 13 13 12 12 12 12 12 13 13 12 12 12 13 14 13 13 11 12 10 11 10 8 10 9 7 8 8 7 7 7 7 7 7 7 7 7 7 7 6 6 5 5 5 5 4 4 4 4 3
13 13 13 13 13 13 13 12 13 12 12 13 13 14 14 14 13 13 13 12 12 11 11 10 9 10 10 9 9 8 7 6 7 6 7 7 7 7 7 7 7 7 7 6 6 6 6 5 5 5 5 4 4 4
13 13 13 13 12 12 12 12 13 13 14 14 14 14 13 13 13 12 11 11 11 11 11 9 9 9 7 5 6 8 7 7 7 7 7 7 7 7 7 7 7 7 7 6 6 6 5 5 5 5 5 4 4 3
13 12 12 12 12 12 12 13 13 13 13 14 13 13 13 12 12 11 10 10 10 10 10 7 7 7 6 7 7 7 8 8 7 7 7 7 7 7 7 7 6 6 6 6 6 6 5 5 5 5 4 4 4 3
12 12 12 12 12 12 13 13 13 14 14 13 13 12 11 11 11 10 10 10 9 9 9 8 7 8 8 8 8 8 8 8 7 7 7 7 6 6 6 6 6 6 5 5 5 5 5 5 4 4 3 3 3 3
12 12 12 12 12 12 12 13 13 13 13 12 12 11 10 10 9 9 9 9 9 9 9 9 9 9 9 9 8 8 7 6 7 7 7 6 5 5 5 5 5 4 5 5 5 5 5 4 4 4 3 3 3 3
12 12 12 12 12 12 13 13 13 12 13 12 11 11 10 9 8 9 8 8 8 9 9 9 9 9 9 8 8 7 7 7 7 6 6 6 5 5 5 5 5 5 4 5 4 4 4 4 3 3 2 2 2 2
11 11 12 12 12 12 13 13 12 11 11 12 12 12 11 9 9 9 10 8 8 9 9 9 9 9 9 8 8 8 7 7 6 6 5 4 4 4 4 4 4 3 4 4 4 4 3 3 3 2 2 2 2 2
11 12 11 11 12 11 13 13 12 12 12 11 11 11 10 8 10 10 10 9 9 9 9 9 9 9 8 8 8 7 7 6 6 6 4 4 4 3 2 2 2 2 3 3 3 3 3 2 2 0 1 1 1 1
4 12 11 13 12 13 14 14 13 12 11 12 12 9 8 10 10 11 10 9 9 9 9 9 9 8 8 8 7 7 6 6 6 5 4 3 2 2 2 2 2 2 2 2 2 2 2 2 1 1 0 0 1 1
7 12 12 13 12 12 11 10 9 11 12 12 12 11 11 11 11 10 10 9 9 9 8 8 8 7 7 7 6 6 5 5 5 4 4 3 2 2 2 2 1 1 1 1 2 1 1 1 1 1 1 1 0 0
11 12 13 12 12 12 13 11 12 12 12 10 10 12 12 12 11 10 9 9 9 9 8 7 7 7 6 6 6 5 5 5 4 4 4 2 2 1 1 1 1 1 1 1 1 1 1 1 1 1 0 0 -0 0
11 12 12 12 12 11 11 12 13 12 12 11 12 12 11 9 9 10 9 9 9 9 8 7 6 6 5 5 4 4 4 3 3 3 3 2 1 1 1 0 0 0 0 0 0 1 1 1 0 -0 -0 -0 -0 -0
13 13 12 13 13 14 13 13 13 13 12 12 11 10 9 9 9 9 9 9 8 8 7 7 6 5 4 4 3 3 3 3 2 2 2 2 2 1 0 0 0 -0 0 -0 -0 0 0 0 -0 -0 -0 -0 -0 -0
14 13 13 13 14 13 13 13 12 11 11 11 10 10 9 9 9 9 9 8 8 7 7 6 5 4 3 3 2 2 1 1 1 1 1 1 1 1 0 0 0 0 -0 -0 -0 -0 -0 -0 -0 -1 -1 -1 -1 -1
14 13 13 14 13 12 11 10 10 10 10 10 10 10 9 9 9 9 8 8 7 7 6 5 5 4 3 3 2 1 1 0 -0 -0 -0 -0 -0 -0 -0 0 -0 -0 -1 -0 -1 -1 -1 -1 -1 -1 -1 -1 -1 -1
14 12 12 12 11 10 10 11 11 9 9 10 9 10 10 10 9 8 8 7 7 6 6 5 4 3 2 2 2 1 -0 -0 -0 -0 -1 -1 -1 -1 -1 -1 -1 -1 -1 -1 -1 -1 -1 -1 -1 -1 -2 -2 -2 -2

GFSWCAN_850_temp_048.txt.gz
Temp
10 10 10 10 10 10 10 10 10 10 10 10 10 9 8 5 5 5 4 4 4 4 6 6 5 5 4 4 4 4 7 6 4 5 5 5 5 5 5 5 6 7 6 6 6 6 6 6 4 7 11 9 8 9
10 10 10 10 10 10 10 10 10 10 10 10 10 10 8 6 6 6 4 5 5 4 6 5 5 5 4 4 4 5 6 6 4 4 4 4 5 5 5 6 3 5 5 5 5 7 5 3 3 6 7 7 7 9
10 10 10 10 10 10 10 10 10 10 10 10 10 10 9 8 7 6 5 5 5 5 8 9 8 6 5 5 4 5 7 6 4 3 3 3 4 4 6 5 4 3 2 4 3 4 3 4 4 6 6 6 6 8
10 10 10 10 11 11 11 10 10 10 10 10 9 9 9 8 7 7 6 5 4 6 10 10 7 7 6 6 5 4 4 4 4 4 5 5 4 4 5 4 3 3 3 3 3 2 3 5 4 5 6 5 6 7
10 10 11 11 11 11 11 11 10 10 10 9 9 9 8 7 7 6 6 5 6 6 10 12 8 7 6 6 6 6 6 7 8 9 7 5 3 3 4 5 4 4 4 4 4 3 3 3 5 5 6 5 5 6
10 11 11 11 11 11 11 11 10 10 10 9 9 8 8 8 7 5 6 7 6 5 7 10 8 8 6 7 7 7 6 6 8 8 7 7 5 3 5 5 5 4 3 3 3 3 4 4 4 4 5 5 5 6
10 11 11 11 11 11 11 11 11 10 10 9 9 8 7 7 7 6 8 6 6 6 7 10 11 7 7 7 7 8 7 7 8 8 9 7 7 6 6 5 7 6 5 3 2 3 3 3 3 4 5 5 5 5
10 11 11 11 11 12 11 11 11 10 10 9 9 8 7 7 7 7 6 6 5 5 6 9 12 9 6 6 6 6 9 9 8 9 8 8 9 7 5 8 7 6 6 4 3 3 3 3 3 3 3 4 5 5
11 11 11 11 12 12 11 11 11 11 10 10 9 8 7 7 6 6 6 5 5 5 8 7 9 11 6 7 6 7 8 9 8 9 8 7 6 5 7 7 7 6 6 5 4 3 3 3 2 2 2 2 3 3
11 11 11 11 12 12 11 11 11 11 11 10 9 6 8 7 7 6 6 5 5 5 5 6 6 10 8 8 9 8 8 8 7 10 8 5 5 8 7 7 6 6 5 5 5 4 3 3 2 2 2 2 2 2
11 11 11 11 12 12 12 11 11 11 11 10 8 10 9 8 6 6 9 10 11 11 9 9 7 11 9 9 9 8 8 8 6 8 9 6 6 9 8 7 6 6 5 5 5 4 4 3 3 3 3 2 1 2
11 11 11 12 12 12 12 12 11 11 11 10 9 9 8 7 9 12 14 13 14 14 14 13 12 9 7 7 8 8 9 8 9 10 10 6 9 9 8 8 7 6 6 5 5 5 4 4 4 4 4 3 1 1
11 11 12 12 12 13 13 12 11 12 11 10 8 9 10 12 10 14 9 13 15 15 14 13 12 9 6 7 7 8 10 11 10 10 6 8 10 9 8 8 8 7 6 5 5 5 5 5 4 4 4 4 3 2
11 12 12 13 13 13 12 12 12 12 11 10 12 8 14 15 16 16 16 16 15 14 14 13 12 8 8 10 12 11 12 12 11 8 7 11 9 9 8 8 8 8 7 6 6 5 5 5 5 5 4 4 4 3
11 12 12 12 12 12 12 12 12 12 11 12 13 11 16 16 16 16 15 14 15 13 13 13 12 12 12 12 13 12 11 10 10 10 11 11 8 8 8 8 8 8 8 7 6 6 5 5 6 5 5 5 4 3
12 12 12 12 12 12 13 13 13 12 10 11 12 15 16 16 17 17 16 16 14 14 12 12 12 13 12 13 12 11 8 8 10 10 10 10 8 8 7 7 8 8 7 7 7 7 6 6 6 6 6 5 5 4
12 12 12 12 12 13 12 12 12 11 12 13 16 16 15 16 16 16 15 15 12 13 12 9 11 11 11 10 6 6 7 9 10 10 10 8 8 7 7 7 8 7 7 7 7 7 6 6 6 6 5 5 5 5
12 12 13 13 13 13 12 12 11 13 14 15 16 16 16 15 14 14 12 11 11 12 12 10 8 6 5 5 5 8 8 10 9 9 9 8 7 7 7 7 7 7 7 7 7 6 6 6 7 7 6 5 6 6
12 12 12 12 12 12 11 11 12 15 16 16 16 15 14 14 11 11 10 10 10 10 11 9 7 6 6 6 8 9 9 10 9 9 9 7 7 7 6 7 7 7 7 7 7 7 6 6 6 6 6 6 6 5
12 12 12 12 12 12 12 13 13 13 15 16 15 15 14 13 11 11 11 11 11 12 12 9 7 8 8 9 8 8 10 9 8 8 9 9 8 7 7 6 7 7 7 6 6 6 6 6 6 6 5 5 6 5
12 12 12 12 12 12 12 14 14 14 15 15 14 14 14 12 13 13 12 11 13 12 12 10 9 9 9 9 8 8 8 8 7 9 9 9 7 7 7 7 6 7 7 7 6 6 6 6 5 5 5 5 5 5
12 12 12 12 11 11 12 13 14 13 14 15 15 14 14 14 13 12 11 13 12 11 11 11 10 10 10 9 8 7 7 7 6 7 7 7 7 6 6 7 7 7 7 7 6 6 5 5 5 5 5 4 4 4
12 12 11 11 12 12 13 13 14 14 16 16 15 15 14 13 12 10 13 12 11 10 9 9 9 8 8 8 7 7 6 7 7 7 6 6 4 5 6 5 6 6 6 5 5 6 5 4 4 4 4 4 4 4
12 10 11 13 13 13 13 15 14 14 15 16 16 15 14 13 11 13 13 12 11 10 9 8 8 10 10 9 9 8 7 7 7 6 5 4 5 5 5 4 4 4 4 4 5 5 4 4 3 3 4 3 3 4
11 11 11 11 12 14 16 16 16 16 16 16 15 15 14 12 14 14 13 12 11 11 9 9 9 10 10 9 8 8 7 7 6 6 5 6 5 4 3 3 3 3 3 3 4 4 4 3 3 3 3 3 3 3
7 12 12 16 16 16 17 17 16 16 16 15 16 13 12 13 13 13 13 12 11 10 9 8 9 9 9 8 8 8 7 6 5 5 5 5 3 1 2 2 4 3 3 3 3 2 1 2 1 2 2 2 2 3
9 15 14 13 14 15 15 14 14 15 16 16 16 14 14 14 14 13 11 10 10 9 8 8 8 8 8 7 6 5 5 5 5 5 4 3 3 3 3 3 2 2 2 3 3 2 2 2 2 2 2 2 2 2
14 14 16 15 14 15 16 16 16 16 16 15 14 15 15 15 13 11 10 9 8 8 7 7 6 6 6 5 5 5 4 4 3 3 3 2 2 2 2 2 1 1 1 2 2 2 2 1 2 2 2 1 1 1
13 14 14 15 15 16 15 16 17 16 15 15 16 16 14 11 11 10 9 8 8 8 8 7 6 6 5 5 4 4 4 5 5 5 4 2 2 2 2 1 1 2 2 1 1 2 1 1 1 1 1 1 1 1
15 14 16 16 17 18 18 16 16 13 13 13 12 10 10 9 9 9 8 8 8 8 8 7 7 6 6 5 4 3 3 3 3 4 5 4 3 3 2 2 2 2 2 2 2 1 1 1 1 1 1 1 1 1
15 15 16 17 17 17 15 13 12 12 12 11 10 12 11 9 8 8 8 8 8 7 7 7 6 5 5 5 4 4 2 2 1 1 2 2 3 2 2 2 2 2 2 2 1 1 1 1 1 1 1 1 0 0
15 16 17 18 18 13 12 12 13 13 13 12 11 10 10 10 9 8 8 7 7 7 7 6 5 4 3 2 2 1 1 1 1 1 1 2 2 1 1 1 2 2 1 2 2 1 1 1 1 0 0 0 0 -0
16 16 16 16 15 14 12 12 12 12 11 12 12 11 11 12 11 6 8 7 7 7 6 5 4 3 2 1 1 0 0 -0 0 0 0 0 0 1 1 1 1 1 1 1 1 1 1 1 1 0 0 -0 -0 -0